Wetterdaten: Samstag, 07.07.2018
Datum Zeit Temp. Aussen Temp. o. S. +5cm Feuchte Auss Luftdruck Regen Sonnenschein Regendauer Solar Windben Empfang
07.07.2018 00:00 19,3 C 16,7 C 16,1 C 71 % 1019,6 hPa 0,0 l/m 0 min 0 min 0 W/m 0,0 km/h (0 Bft) 95,65 %
07.07.2018 00:02 19,3 C 16,7 C 16,1 C 71 % 1019,6 hPa 0,0 l/m 0 min 0 min 0 W/m 4,5 km/h (1 Bft) 94,87 %
07.07.2018 00:04 19,3 C 16,7 C 16,1 C 71 % 1019,6 hPa 0,0 l/m 0 min 0 min 0 W/m 4,5 km/h (1 Bft) 95,74 %
07.07.2018 00:08 19,3 C 16,7 C 16,7 C 71 % 1019,6 hPa 0,0 l/m 0 min 0 min 0 W/m 2,3 km/h (1 Bft) 94,68 %
07.07.2018 00:10 19,3 C 16,7 C 16,7 C 71 % 1019,6 hPa 0,0 l/m 0 min 0 min 0 W/m 4,5 km/h (1 Bft) 95,74 %
07.07.2018 00:12 19,3 C 16,7 C 16,7 C 71 % 1019,6 hPa 0,0 l/m 0 min 0 min 0 W/m 4,5 km/h (1 Bft) 95,74 %
07.07.2018 00:14 19,3 C 16,7 C 16,7 C 71 % 1019,7 hPa 0,0 l/m 0 min 0 min 0 W/m 4,5 km/h (1 Bft) 95,74 %
07.07.2018 00:16 19,3 C 16,7 C 16,7 C 71 % 1019,7 hPa 0,0 l/m 0 min 0 min 0 W/m 4,5 km/h (1 Bft) 97,87 %
07.07.2018 00:18 19,3 C 16,7 C 16,7 C 71 % 1019,7 hPa 0,0 l/m 0 min 0 min 0 W/m 4,5 km/h (1 Bft) 95,74 %
07.07.2018 00:20 19,3 C 17,2 C 17,2 C 70 % 1019,7 hPa 0,0 l/m 0 min 0 min 0 W/m 2,3 km/h (1 Bft) 97,87 %
07.07.2018 00:22 19,3 C 17,2 C 17,2 C 70 % 1019,7 hPa 0,0 l/m 0 min 0 min 0 W/m 2,3 km/h (1 Bft) 97,83 %
07.07.2018 00:24 19,3 C 17,2 C 17,2 C 70 % 1019,7 hPa 0,0 l/m 0 min 0 min 0 W/m 4,5 km/h (1 Bft) 97,87 %
07.07.2018 00:26 19,3 C 17,8 C 17,8 C 70 % 1019,7 hPa 0,0 l/m 0 min 0 min 0 W/m 4,5 km/h (1 Bft) 95,74 %
07.07.2018 00:28 19,3 C 18,3 C 17,2 C 70 % 1019,7 hPa 0,0 l/m 0 min 0 min 0 W/m 2,3 km/h (1 Bft) 95,74 %
07.07.2018 00:30 19,3 C 18,3 C 17,8 C 70 % 1019,7 hPa 0,0 l/m 0 min 0 min 0 W/m 4,5 km/h (1 Bft) 95,74 %
07.07.2018 00:32 19,3 C 18,3 C 17,8 C 70 % 1019,7 hPa 0,0 l/m 0 min 0 min 0 W/m 6,8 km/h (2 Bft) 97,83 %
07.07.2018 00:34 19,3 C 18,3 C 17,8 C 70 % 1019,7 hPa 0,0 l/m 0 min 0 min 0 W/m 4,5 km/h (1 Bft) 97,87 %
07.07.2018 00:36 19,3 C 18,3 C 17,8 C 70 % 1019,8 hPa 0,0 l/m 0 min 0 min 0 W/m 2,3 km/h (1 Bft) 100,00 %
07.07.2018 00:38 19,3 C 18,3 C 17,8 C 70 % 1019,8 hPa 0,0 l/m 0 min 0 min 0 W/m 2,3 km/h (1 Bft) 97,87 %
07.07.2018 00:40 19,3 C 18,3 C 17,8 C 70 % 1019,7 hPa 0,0 l/m 0 min 0 min 0 W/m 2,3 km/h (1 Bft) 100,00 %
07.07.2018 00:42 19,3 C 18,3 C 17,8 C 70 % 1019,8 hPa 0,0 l/m 0 min 0 min 0 W/m 2,3 km/h (1 Bft) 97,87 %
07.07.2018 00:44 19,3 C 18,9 C 17,8 C 70 % 1019,8 hPa 0,0 l/m 0 min 0 min 0 W/m 6,8 km/h (2 Bft) 97,83 %
07.07.2018 00:46 19,3 C 18,9 C 17,8 C 70 % 1019,8 hPa 0,0 l/m 0 min 0 min 0 W/m 4,5 km/h (1 Bft) 97,62 %
07.07.2018 00:48 19,3 C 18,3 C 17,8 C 70 % 1019,8 hPa 0,0 l/m 0 min 0 min 0 W/m 2,3 km/h (1 Bft) 95,65 %
07.07.2018 00:50 19,3 C 18,9 C 17,8 C 70 % 1019,8 hPa 0,0 l/m 0 min 0 min 0 W/m 4,5 km/h (1 Bft) 97,87 %
07.07.2018 00:52 19,3 C 18,9 C 17,8 C 69 % 1019,7 hPa 0,0 l/m 0 min 0 min 0 W/m 2,3 km/h (1 Bft) 97,87 %
07.07.2018 00:54 19,3 C 18,9 C 17,8 C 69 % 1019,7 hPa 0,0 l/m 0 min 0 min 0 W/m 2,3 km/h (1 Bft) 97,92 %
07.07.2018 00:56 19,3 C 18,3 C 17,8 C 69 % 1019,7 hPa 0,0 l/m 0 min 0 min 0 W/m 4,5 km/h (1 Bft) 97,87 %
07.07.2018 00:58 19,3 C 18,3 C 17,8 C 69 % 1019,7 hPa 0,0 l/m 0 min 0 min 0 W/m 2,3 km/h (1 Bft) 97,87 %
07.07.2018 01:00 19,3 C 18,3 C 17,2 C 69 % 1019,7 hPa 0,0 l/m 0 min 0 min 0 W/m 0,0 km/h (0 Bft) 97,83 %
07.07.2018 01:02 19,3 C 18,3 C 17,2 C 69 % 1019,7 hPa 0,0 l/m 0 min 0 min 0 W/m 0,0 km/h (0 Bft) 97,87 %
07.07.2018 01:04 19,3 C 18,3 C 17,2 C 69 % 1019,7 hPa 0,0 l/m 0 min 0 min 0 W/m 0,0 km/h (0 Bft) 93,62 %
07.07.2018 01:06 19,2 C 18,3 C 17,2 C 69 % 1019,8 hPa 0,0 l/m 0 min 0 min 0 W/m 4,5 km/h (1 Bft) 97,87 %
07.07.2018 01:08 19,2 C 18,3 C 17,2 C 69 % 1019,7 hPa 0,0 l/m 0 min 0 min 0 W/m 2,3 km/h (1 Bft) 97,87 %
07.07.2018 01:10 19,2 C 18,3 C 17,2 C 69 % 1019,7 hPa 0,0 l/m 0 min 0 min 0 W/m 0,0 km/h (0 Bft) 97,87 %
07.07.2018 01:12 19,2 C 18,3 C 17,2 C 69 % 1019,7 hPa 0,0 l/m 0 min 0 min 0 W/m 0,0 km/h (0 Bft) 97,83 %
07.07.2018 01:14 19,2 C 18,3 C 17,2 C 69 % 1019,7 hPa 0,0 l/m 0 min 0 min 0 W/m 2,3 km/h (1 Bft) 97,92 %
07.07.2018 01:16 19,2 C 18,3 C 17,2 C 69 % 1019,7 hPa 0,0 l/m 0 min 0 min 0 W/m 4,5 km/h (1 Bft) 97,92 %
07.07.2018 01:18 19,2 C 18,3 C 17,2 C 69 % 1019,7 hPa 0,0 l/m 0 min 0 min 0 W/m 4,5 km/h (1 Bft) 97,92 %
07.07.2018 01:20 19,2 C 18,3 C 17,2 C 69 % 1019,7 hPa 0,0 l/m 0 min 0 min 0 W/m 2,3 km/h (1 Bft) 97,87 %
07.07.2018 01:22 19,2 C 17,8 C 17,2 C 69 % 1019,8 hPa 0,0 l/m 0 min 0 min 0 W/m 0,0 km/h (0 Bft) 97,87 %
07.07.2018 01:24 19,1 C 17,8 C 17,2 C 69 % 1019,8 hPa 0,0 l/m 0 min 0 min 0 W/m 2,3 km/h (1 Bft) 97,87 %
07.07.2018 01:26 19,1 C 17,8 C 17,2 C 69 % 1019,8 hPa 0,0 l/m 0 min 0 min 0 W/m 0,0 km/h (0 Bft) 97,87 %
07.07.2018 01:28 19,1 C 17,8 C 16,7 C 69 % 1019,8 hPa 0,0 l/m 0 min 0 min 0 W/m 0,0 km/h (0 Bft) 97,87 %
07.07.2018 01:30 19,1 C 17,8 C 16,7 C 69 % 1019,8 hPa 0,0 l/m 0 min 0 min 0 W/m 0,0 km/h (0 Bft) 100,00 %
07.07.2018 01:32 19,1 C 17,8 C 16,7 C 69 % 1019,8 hPa 0,0 l/m 0 min 0 min 0 W/m 0,0 km/h (0 Bft) 100,00 %
07.07.2018 01:34 19,0 C 17,2 C 16,7 C 69 % 1019,8 hPa 0,0 l/m 0 min 0 min 0 W/m 0,0 km/h (0 Bft) 97,87 %
07.07.2018 01:36 19,0 C 17,2 C 16,7 C 69 % 1019,8 hPa 0,0 l/m 0 min 0 min 0 W/m 0,0 km/h (0 Bft) 100,00 %
07.07.2018 01:38 19,0 C 17,8 C 16,7 C 69 % 1019,8 hPa 0,0 l/m 0 min 0 min 0 W/m 0,0 km/h (0 Bft) 100,00 %
07.07.2018 01:40 18,9 C 17,8 C 16,7 C 69 % 1019,9 hPa 0,0 l/m 0 min 0 min 0 W/m 0,0 km/h (0 Bft) 100,00 %
07.07.2018 01:42 18,9 C 17,2 C 16,7 C 69 % 1019,8 hPa 0,0 l/m 0 min 0 min 0 W/m 0,0 km/h (0 Bft) 100,00 %
07.07.2018 01:44 18,9 C 17,2 C 16,7 C 69 % 1019,9 hPa 0,0 l/m 0 min 0 min 0 W/m 2,3 km/h (1 Bft) 100,00 %
07.07.2018 01:46 18,9 C 17,8 C 16,7 C 69 % 1019,8 hPa 0,0 l/m 0 min 0 min 0 W/m 4,5 km/h (1 Bft) 100,00 %
07.07.2018 01:48 18,8 C 17,8 C 16,7 C 69 % 1019,8 hPa 0,0 l/m 0 min 0 min 0 W/m 2,3 km/h (1 Bft) 100,00 %
07.07.2018 01:50 18,8 C 17,2 C 16,7 C 69 % 1019,8 hPa 0,0 l/m 0 min 0 min 0 W/m 0,0 km/h (0 Bft) 97,87 %
07.07.2018 01:52 18,8 C 17,2 C 16,7 C 69 % 1019,9 hPa 0,0 l/m 0 min 0 min 0 W/m 2,3 km/h (1 Bft) 100,00 %
07.07.2018 01:54 18,7 C 17,2 C 16,7 C 69 % 1019,9 hPa 0,0 l/m 0 min 0 min 0 W/m 2,3 km/h (1 Bft) 100,00 %
07.07.2018 01:56 18,7 C 17,2 C 16,7 C 70 % 1019,9 hPa 0,0 l/m 0 min 0 min 0 W/m 0,0 km/h (0 Bft) 100,00 %
07.07.2018 01:58 18,7 C 17,2 C 16,7 C 70 % 1019,9 hPa 0,0 l/m 0 min 0 min 0 W/m 0,0 km/h (0 Bft) 100,00 %
07.07.2018 02:00 18,6 C 17,2 C 16,7 C 70 % 1019,9 hPa 0,0 l/m 0 min 0 min 0 W/m 0,0 km/h (0 Bft) 100,00 %
07.07.2018 02:02 18,6 C 17,2 C 16,7 C 70 % 1019,9 hPa 0,0 l/m 0 min 0 min 0 W/m 4,5 km/h (1 Bft) 100,00 %
07.07.2018 02:04 18,6 C 17,2 C 16,7 C 70 % 1019,9 hPa 0,0 l/m 0 min 0 min 0 W/m 0,0 km/h (0 Bft) 100,00 %
07.07.2018 02:06 18,5 C 17,2 C 16,7 C 70 % 1019,9 hPa 0,0 l/m 0 min 0 min 0 W/m 0,0 km/h (0 Bft) 100,00 %
07.07.2018 02:08 18,5 C 17,2 C 16,7 C 70 % 1019,8 hPa 0,0 l/m 0 min 0 min 0 W/m 2,3 km/h (1 Bft) 100,00 %
07.07.2018 02:10 18,4 C 16,7 C 16,7 C 70 % 1020,0 hPa 0,0 l/m 0 min 0 min 0 W/m 2,3 km/h (1 Bft) 100,00 %
07.07.2018 02:12 18,4 C 16,7 C 16,1 C 70 % 1019,9 hPa 0,0 l/m 0 min 0 min 0 W/m 0,0 km/h (0 Bft) 100,00 %
07.07.2018 02:14 18,4 C 16,7 C 16,1 C 70 % 1019,9 hPa 0,0 l/m 0 min 0 min 0 W/m 0,0 km/h (0 Bft) 100,00 %
07.07.2018 02:16 18,3 C 16,7 C 16,1 C 70 % 1019,9 hPa 0,0 l/m 0 min 0 min 0 W/m 2,3 km/h (1 Bft) 100,00 %
07.07.2018 02:18 18,3 C 16,7 C 16,1 C 69 % 1019,9 hPa 0,0 l/m 0 min 0 min 0 W/m 2,3 km/h (1 Bft) 97,87 %
07.07.2018 02:20 18,3 C 16,7 C 16,1 C 69 % 1019,9 hPa 0,0 l/m 0 min 0 min 0 W/m 0,0 km/h (0 Bft) 97,87 %
07.07.2018 02:22 18,2 C 16,7 C 16,1 C 69 % 1019,9 hPa 0,0 l/m 0 min 0 min 0 W/m 2,3 km/h (1 Bft) 97,87 %
07.07.2018 02:24 18,2 C 16,7 C 16,1 C 69 % 1019,9 hPa 0,0 l/m 0 min 0 min 0 W/m 2,3 km/h (1 Bft) 97,87 %
07.07.2018 02:26 18,2 C 16,7 C 16,1 C 69 % 1019,9 hPa 0,0 l/m 0 min 0 min 0 W/m 0,0 km/h (0 Bft) 97,92 %
07.07.2018 02:28 18,1 C 16,7 C 16,1 C 69 % 1020,0 hPa 0,0 l/m 0 min 0 min 0 W/m 0,0 km/h (0 Bft) 97,87 %
07.07.2018 02:30 18,1 C 16,7 C 16,1 C 70 % 1020,0 hPa 0,0 l/m 0 min 0 min 0 W/m 2,3 km/h (1 Bft) 97,83 %
07.07.2018 02:32 18,1 C 16,7 C 16,1 C 70 % 1019,9 hPa 0,0 l/m 0 min 0 min 0 W/m 2,3 km/h (1 Bft) 97,87 %
07.07.2018 02:34 18,0 C 16,7 C 16,1 C 70 % 1020,0 hPa 0,0 l/m 0 min 0 min 0 W/m 2,3 km/h (1 Bft) 97,87 %
07.07.2018 02:36 18,0 C 16,7 C 16,1 C 69 % 1019,9 hPa 0,0 l/m 0 min 0 min 0 W/m 4,5 km/h (1 Bft) 96,00 %
07.07.2018 02:38 17,9 C 16,7 C 16,7 C 69 % 1019,9 hPa 0,0 l/m 0 min 0 min 0 W/m 2,3 km/h (1 Bft) 97,87 %
07.07.2018 02:40 17,9 C 16,7 C 16,7 C 69 % 1020,0 hPa 0,0 l/m 0 min 0 min 0 W/m 2,3 km/h (1 Bft) 97,83 %
07.07.2018 02:42 17,9 C 16,7 C 16,7 C 69 % 1019,9 hPa 0,0 l/m 0 min 0 min 0 W/m 4,5 km/h (1 Bft) 97,87 %
07.07.2018 02:44 17,9 C 16,7 C 16,7 C 69 % 1020,0 hPa 0,0 l/m 0 min 0 min 0 W/m 2,3 km/h (1 Bft) 97,87 %
07.07.2018 02:46 17,8 C 16,7 C 16,7 C 69 % 1019,9 hPa 0,0 l/m 0 min 0 min 0 W/m 0,0 km/h (0 Bft) 97,87 %
07.07.2018 02:48 17,8 C 16,7 C 16,1 C 70 % 1019,9 hPa 0,0 l/m 0 min 0 min 0 W/m 4,5 km/h (1 Bft) 95,74 %
07.07.2018 02:50 17,8 C 16,7 C 16,1 C 69 % 1019,9 hPa 0,0 l/m 0 min 0 min 0 W/m 4,5 km/h (1 Bft) 97,87 %
07.07.2018 02:52 17,7 C 16,7 C 16,1 C 69 % 1019,9 hPa 0,0 l/m 0 min 0 min 0 W/m 2,3 km/h (1 Bft) 97,87 %
07.07.2018 02:54 17,7 C 16,7 C 16,1 C 69 % 1020,0 hPa 0,0 l/m 0 min 0 min 0 W/m 2,3 km/h (1 Bft) 95,74 %
07.07.2018 02:56 17,7 C 16,7 C 16,1 C 69 % 1020,0 hPa 0,0 l/m 0 min 0 min 0 W/m 2,3 km/h (1 Bft) 93,62 %
07.07.2018 02:58 17,7 C 16,7 C 16,1 C 69 % 1020,0 hPa 0,0 l/m 0 min 0 min 0 W/m 2,3 km/h (1 Bft) 95,74 %
07.07.2018 03:00 17,6 C 16,1 C 16,1 C 70 % 1020,0 hPa 0,0 l/m 0 min 0 min 0 W/m 2,3 km/h (1 Bft) 95,35 %
07.07.2018 03:02 17,6 C 16,1 C 16,1 C 70 % 1020,0 hPa 0,0 l/m 0 min 0 min 0 W/m 2,3 km/h (1 Bft) 95,74 %
07.07.2018 03:04 17,6 C 16,1 C 16,1 C 70 % 1020,0 hPa 0,0 l/m 0 min 0 min 0 W/m 0,0 km/h (0 Bft) 96,00 %
07.07.2018 03:06 17,6 C 16,1 C 16,1 C 70 % 1020,0 hPa 0,0 l/m 0 min 0 min 0 W/m 0,0 km/h (0 Bft) 97,83 %
07.07.2018 03:08 17,5 C 16,1 C 16,1 C 70 % 1020,0 hPa 0,0 l/m 0 min 0 min 0 W/m 0,0 km/h (0 Bft) 95,83 %
07.07.2018 03:10 17,5 C 16,1 C 16,1 C 70 % 1020,0 hPa 0,0 l/m 0 min 0 min 0 W/m 0,0 km/h (0 Bft) 95,74 %
07.07.2018 03:12 17,5 C 16,1 C 16,1 C 70 % 1020,0 hPa 0,0 l/m 0 min 0 min 0 W/m 0,0 km/h (0 Bft) 95,74 %
07.07.2018 03:14 17,4 C 16,1 C 16,1 C 70 % 1020,0 hPa 0,0 l/m 0 min 0 min 0 W/m 0,0 km/h (0 Bft) 97,83 %
07.07.2018 03:16 17,4 C 16,1 C 16,1 C 70 % 1020,0 hPa 0,0 l/m 0 min 0 min 0 W/m 0,0 km/h (0 Bft) 95,74 %
07.07.2018 03:18 17,4 C 16,1 C 16,1 C 70 % 1020,1 hPa 0,0 l/m 0 min 0 min 0 W/m 0,0 km/h (0 Bft) 91,49 %
07.07.2018 03:20 17,4 C 16,1 C 16,1 C 70 % 1020,1 hPa 0,0 l/m 0 min 0 min 0 W/m 0,0 km/h (0 Bft) 95,74 %
07.07.2018 03:22 17,4 C 16,1 C 15,6 C 70 % 1020,1 hPa 0,0 l/m 0 min 0 min 0 W/m 0,0 km/h (0 Bft) 95,74 %
07.07.2018 03:24 17,3 C 16,1 C 15,6 C 70 % 1020,1 hPa 0,0 l/m 0 min 0 min 0 W/m 2,3 km/h (1 Bft) 95,74 %
07.07.2018 03:26 17,3 C 16,1 C 15,6 C 70 % 1020,1 hPa 0,0 l/m 0 min 0 min 0 W/m 2,3 km/h (1 Bft) 93,48 %
07.07.2018 03:28 17,3 C 16,1 C 15,6 C 70 % 1020,0 hPa 0,0 l/m 0 min 0 min 0 W/m 0,0 km/h (0 Bft) 91,49 %
07.07.2018 03:30 17,3 C 16,1 C 15,6 C 70 % 1020,0 hPa 0,0 l/m 0 min 0 min 0 W/m 0,0 km/h (0 Bft) 95,74 %
07.07.2018 03:32 17,2 C 16,1 C 15,6 C 70 % 1020,0 hPa 0,0 l/m 0 min 0 min 0 W/m 2,3 km/h (1 Bft) 93,62 %
07.07.2018 03:34 17,2 C 15,6 C 15,6 C 70 % 1020,0 hPa 0,0 l/m 0 min 0 min 0 W/m 0,0 km/h (0 Bft) 95,74 %
07.07.2018 03:38 17,2 C 15,6 C 15,6 C 71 % 1020,1 hPa 0,0 l/m 0 min 0 min 0 W/m 0,0 km/h (0 Bft) 94,79 %
07.07.2018 03:40 17,2 C 15,6 C 15,6 C 71 % 1020,1 hPa 0,0 l/m 0 min 0 min 0 W/m 0,0 km/h (0 Bft) 95,74 %
07.07.2018 03:42 17,1 C 15,6 C 15,6 C 71 % 1020,1 hPa 0,0 l/m 0 min 0 min 0 W/m 0,0 km/h (0 Bft) 93,62 %
07.07.2018 03:44 17,1 C 15,6 C 15,6 C 72 % 1020,1 hPa 0,0 l/m 0 min 0 min 0 W/m 0,0 km/h (0 Bft) 93,62 %
07.07.2018 03:46 17,1 C 15,6 C 15,6 C 72 % 1020,1 hPa 0,0 l/m 0 min 0 min 0 W/m 4,5 km/h (1 Bft) 95,74 %
07.07.2018 03:48 17,1 C 16,1 C 15,6 C 71 % 1020,1 hPa 0,0 l/m 0 min 0 min 0 W/m 0,0 km/h (0 Bft) 91,30 %
07.07.2018 03:50 17,0 C 16,1 C 15,6 C 72 % 1020,1 hPa 0,0 l/m 0 min 0 min 0 W/m 2,3 km/h (1 Bft) 95,74 %
07.07.2018 03:52 17,0 C 16,1 C 15,6 C 72 % 1020,1 hPa 0,0 l/m 0 min 0 min 0 W/m 2,3 km/h (1 Bft) 95,74 %
07.07.2018 03:54 16,9 C 16,1 C 15,6 C 71 % 1020,1 hPa 0,0 l/m 0 min 0 min 0 W/m 0,0 km/h (0 Bft) 95,74 %
07.07.2018 03:56 16,9 C 16,1 C 16,1 C 72 % 1020,0 hPa 0,0 l/m 0 min 0 min 0 W/m 2,3 km/h (1 Bft) 95,12 %
07.07.2018 03:58 16,9 C 16,1 C 16,1 C 72 % 1020,0 hPa 0,0 l/m 0 min 0 min 0 W/m 2,3 km/h (1 Bft) 95,83 %
07.07.2018 04:00 16,9 C 16,1 C 16,1 C 72 % 1020,0 hPa 0,0 l/m 0 min 0 min 0 W/m 2,3 km/h (1 Bft) 98,00 %
07.07.2018 04:02 16,9 C 16,7 C 16,1 C 72 % 1020,0 hPa 0,0 l/m 0 min 0 min 0 W/m 2,3 km/h (1 Bft) 100,00 %
07.07.2018 04:04 16,9 C 16,1 C 16,1 C 72 % 1020,0 hPa 0,0 l/m 0 min 0 min 0 W/m 0,0 km/h (0 Bft) 100,00 %
07.07.2018 04:06 16,8 C 16,1 C 16,1 C 72 % 1020,0 hPa 0,0 l/m 0 min 0 min 0 W/m 0,0 km/h (0 Bft) 97,87 %
07.07.2018 04:08 16,8 C 16,1 C 16,1 C 72 % 1020,0 hPa 0,0 l/m 0 min 0 min 0 W/m 0,0 km/h (0 Bft) 97,87 %
07.07.2018 04:10 16,8 C 16,1 C 16,1 C 72 % 1020,0 hPa 0,0 l/m 0 min 0 min 0 W/m 0,0 km/h (0 Bft) 97,87 %
07.07.2018 04:12 16,8 C 16,1 C 16,1 C 72 % 1020,0 hPa 0,0 l/m 0 min 0 min 0 W/m 0,0 km/h (0 Bft) 97,83 %
07.07.2018 04:14 16,8 C 16,1 C 16,1 C 72 % 1019,9 hPa 0,0 l/m 0 min 0 min 0 W/m 0,0 km/h (0 Bft) 97,87 %
07.07.2018 04:16 16,8 C 16,1 C 16,1 C 72 % 1020,0 hPa 0,0 l/m 0 min 0 min 0 W/m 0,0 km/h (0 Bft) 93,62 %
07.07.2018 04:18 16,8 C 16,1 C 16,1 C 72 % 1020,0 hPa 0,0 l/m 0 min 0 min 0 W/m 0,0 km/h (0 Bft) 97,87 %
07.07.2018 04:20 16,8 C 16,1 C 16,1 C 71 % 1020,0 hPa 0,0 l/m 0 min 0 min 0 W/m 0,0 km/h (0 Bft) 97,87 %
07.07.2018 04:22 16,7 C 16,1 C 15,6 C 71 % 1020,0 hPa 0,0 l/m 0 min 0 min 0 W/m 0,0 km/h (0 Bft) 100,00 %
07.07.2018 04:24 16,7 C 15,6 C 15,6 C 71 % 1020,0 hPa 0,0 l/m 0 min 0 min 0 W/m 0,0 km/h (0 Bft) 100,00 %
07.07.2018 04:26 16,7 C 15,6 C 15,6 C 71 % 1020,0 hPa 0,0 l/m 0 min 0 min 0 W/m 0,0 km/h (0 Bft) 97,87 %
07.07.2018 04:28 16,7 C 15,6 C 15,6 C 71 % 1020,0 hPa 0,0 l/m 0 min 0 min 0 W/m 0,0 km/h (0 Bft) 100,00 %
07.07.2018 04:30 16,7 C 15,6 C 15,6 C 71 % 1020,0 hPa 0,0 l/m 0 min 0 min 0 W/m 0,0 km/h (0 Bft) 97,87 %
07.07.2018 04:32 16,7 C 15,6 C 15,6 C 71 % 1020,0 hPa 0,0 l/m 0 min 0 min 0 W/m 0,0 km/h (0 Bft) 100,00 %
07.07.2018 04:34 16,7 C 15,6 C 15,6 C 71 % 1020,0 hPa 0,0 l/m 0 min 0 min 0 W/m 0,0 km/h (0 Bft) 100,00 %
07.07.2018 04:36 16,7 C 15,6 C 15,6 C 70 % 1020,0 hPa 0,0 l/m 0 min 0 min 0 W/m 0,0 km/h (0 Bft) 100,00 %
07.07.2018 04:38 16,7 C 15,6 C 15,6 C 70 % 1020,0 hPa 0,0 l/m 0 min 0 min 0 W/m 0,0 km/h (0 Bft) 100,00 %
07.07.2018 04:40 16,6 C 15,6 C 15,6 C 70 % 1020,0 hPa 0,0 l/m 0 min 0 min 0 W/m 0,0 km/h (0 Bft) 97,83 %
07.07.2018 04:42 16,6 C 15,6 C 15,6 C 70 % 1020,0 hPa 0,0 l/m 0 min 0 min 0 W/m 0,0 km/h (0 Bft) 100,00 %
07.07.2018 04:44 16,6 C 15,6 C 15,6 C 70 % 1020,0 hPa 0,0 l/m 0 min 0 min 0 W/m 0,0 km/h (0 Bft) 100,00 %
07.07.2018 04:46 16,6 C 15,6 C 15,6 C 70 % 1020,0 hPa 0,0 l/m 0 min 0 min 0 W/m 0,0 km/h (0 Bft) 100,00 %
07.07.2018 04:48 16,6 C 15,6 C 15,6 C 70 % 1020,1 hPa 0,0 l/m 0 min 0 min 0 W/m 0,0 km/h (0 Bft) 100,00 %
07.07.2018 04:50 16,6 C 15,6 C 15,6 C 70 % 1020,0 hPa 0,0 l/m 0 min 0 min 0 W/m 0,0 km/h (0 Bft) 100,00 %
07.07.2018 04:52 16,6 C 15,6 C 15,6 C 70 % 1019,9 hPa 0,0 l/m 0 min 0 min 0 W/m 0,0 km/h (0 Bft) 100,00 %
07.07.2018 04:54 16,5 C 15,6 C 15,6 C 69 % 1020,0 hPa 0,0 l/m 0 min 0 min 0 W/m 0,0 km/h (0 Bft) 100,00 %
07.07.2018 04:56 16,5 C 16,1 C 15,6 C 69 % 1020,0 hPa 0,0 l/m 0 min 0 min 0 W/m 0,0 km/h (0 Bft) 97,92 %
07.07.2018 04:58 16,5 C 16,1 C 15,6 C 69 % 1020,0 hPa 0,0 l/m 0 min 0 min 0 W/m 0,0 km/h (0 Bft) 100,00 %
07.07.2018 05:00 16,4 C 16,1 C 15,6 C 69 % 1020,0 hPa 0,0 l/m 0 min 0 min 0 W/m 0,0 km/h (0 Bft) 100,00 %
07.07.2018 05:02 16,4 C 16,1 C 15,6 C 68 % 1020,0 hPa 0,0 l/m 0 min 0 min 0 W/m 0,0 km/h (0 Bft) 100,00 %
07.07.2018 05:04 16,4 C 16,1 C 15,6 C 67 % 1020,0 hPa 0,0 l/m 0 min 0 min 0 W/m 0,0 km/h (0 Bft) 100,00 %
07.07.2018 05:06 16,4 C 16,1 C 15,6 C 67 % 1020,0 hPa 0,0 l/m 0 min 0 min 0 W/m 0,0 km/h (0 Bft) 100,00 %
07.07.2018 05:08 16,4 C 16,1 C 15,6 C 68 % 1020,0 hPa 0,0 l/m 0 min 0 min 0 W/m 0,0 km/h (0 Bft) 100,00 %
07.07.2018 05:10 16,4 C 16,1 C 15,6 C 68 % 1019,9 hPa 0,0 l/m 0 min 0 min 0 W/m 0,0 km/h (0 Bft) 100,00 %
07.07.2018 05:12 16,4 C 16,1 C 15,6 C 68 % 1019,9 hPa 0,0 l/m 0 min 0 min 0 W/m 0,0 km/h (0 Bft) 100,00 %
07.07.2018 05:14 16,3 C 16,7 C 15,6 C 68 % 1019,9 hPa 0,0 l/m 0 min 0 min 0 W/m 0,0 km/h (0 Bft) 100,00 %
07.07.2018 05:16 16,3 C 16,1 C 15,6 C 68 % 1019,9 hPa 0,0 l/m 0 min 0 min 0 W/m 0,0 km/h (0 Bft) 95,65 %
07.07.2018 05:18 16,3 C 16,1 C 15,6 C 68 % 1019,9 hPa 0,0 l/m 0 min 0 min 0 W/m 0,0 km/h (0 Bft) 97,87 %
07.07.2018 05:20 16,3 C 16,1 C 15,6 C 69 % 1020,0 hPa 0,0 l/m 0 min 0 min 0 W/m 0,0 km/h (0 Bft) 97,92 %
07.07.2018 05:22 16,3 C 16,1 C 15,6 C 69 % 1020,0 hPa 0,0 l/m 0 min 0 min 0 W/m 0,0 km/h (0 Bft) 98,31 %
07.07.2018 05:24 16,3 C 16,7 C 15,6 C 69 % 1020,0 hPa 0,0 l/m 0 min 0 min 0 W/m 0,0 km/h (0 Bft) 94,44 %
07.07.2018 05:26 16,3 C 16,1 C 15,6 C 69 % 1020,0 hPa 0,0 l/m 0 min 0 min 0 W/m 0,0 km/h (0 Bft) 97,83 %
07.07.2018 05:28 16,3 C 16,1 C 15,6 C 69 % 1020,0 hPa 0,0 l/m 0 min 0 min 3 W/m 0,0 km/h (0 Bft) 95,74 %
07.07.2018 05:30 16,3 C 16,1 C 15,6 C 69 % 1020,0 hPa 0,0 l/m 0 min 0 min 5 W/m 0,0 km/h (0 Bft) 97,87 %
07.07.2018 05:32 16,3 C 16,1 C 15,6 C 69 % 1020,0 hPa 0,0 l/m 0 min 0 min 5 W/m 0,0 km/h (0 Bft) 95,74 %
07.07.2018 05:34 16,3 C 16,1 C 15,6 C 69 % 1020,0 hPa 0,0 l/m 0 min 0 min 5 W/m 0,0 km/h (0 Bft) 95,74 %
07.07.2018 05:35 16,4 C 16,1 C 15,6 C 69 % 1020,0 hPa 0,0 l/m 0 min 0 min 5 W/m 0,0 km/h (0 Bft) 100,00 %
07.07.2018 05:40 16,4 C 16,1 C 15,6 C 69 % 1020,1 hPa 0,0 l/m 0 min 0 min 7 W/m 0,0 km/h (0 Bft) 93,62 %
07.07.2018 05:42 16,4 C 16,1 C 15,6 C 69 % 1020,2 hPa 0,0 l/m 0 min 0 min 7 W/m 0,0 km/h (0 Bft) 100,00 %
07.07.2018 05:44 16,4 C 16,1 C 15,6 C 69 % 1020,2 hPa 0,0 l/m 0 min 0 min 8 W/m 0,0 km/h (0 Bft) 93,62 %
07.07.2018 05:46 16,4 C 16,1 C 15,6 C 70 % 1020,2 hPa 0,0 l/m 0 min 0 min 9 W/m 0,0 km/h (0 Bft) 95,74 %
07.07.2018 05:48 16,4 C 16,1 C 15,6 C 70 % 1020,2 hPa 0,0 l/m 0 min 0 min 9 W/m 0,0 km/h (0 Bft) 93,62 %
07.07.2018 05:50 16,4 C 16,1 C 15,0 C 70 % 1020,3 hPa 0,0 l/m 0 min 0 min 9 W/m 0,0 km/h (0 Bft) 95,74 %
07.07.2018 05:52 16,4 C 15,6 C 15,0 C 70 % 1020,3 hPa 0,0 l/m 0 min 0 min 9 W/m 0,0 km/h (0 Bft) 95,74 %
07.07.2018 05:54 16,4 C 15,6 C 15,0 C 70 % 1020,3 hPa 0,0 l/m 0 min 0 min 11 W/m 0,0 km/h (0 Bft) 95,65 %
07.07.2018 05:56 16,4 C 15,6 C 15,0 C 70 % 1020,2 hPa 0,0 l/m 0 min 0 min 11 W/m 0,0 km/h (0 Bft) 95,74 %
07.07.2018 05:58 16,4 C 15,6 C 15,0 C 70 % 1020,2 hPa 0,0 l/m 0 min 0 min 12 W/m 0,0 km/h (0 Bft) 95,74 %
07.07.2018 06:00 16,4 C 15,6 C 15,0 C 70 % 1020,2 hPa 0,0 l/m 0 min 0 min 16 W/m 0,0 km/h (0 Bft) 93,62 %
07.07.2018 06:02 16,4 C 15,6 C 15,0 C 70 % 1020,2 hPa 0,0 l/m 0 min 0 min 18 W/m 0,0 km/h (0 Bft) 97,87 %
07.07.2018 06:04 16,4 C 15,6 C 15,0 C 70 % 1020,2 hPa 0,0 l/m 0 min 0 min 17 W/m 0,0 km/h (0 Bft) 95,74 %
07.07.2018 06:08 16,4 C 15,6 C 15,0 C 71 % 1020,3 hPa 0,0 l/m 0 min 0 min 21 W/m 0,0 km/h (0 Bft) 97,56 %
07.07.2018 06:10 16,4 C 15,6 C 15,0 C 71 % 1020,3 hPa 0,0 l/m 0 min 0 min 26 W/m 0,0 km/h (0 Bft) 95,65 %
07.07.2018 06:12 16,4 C 15,6 C 15,0 C 71 % 1020,3 hPa 0,0 l/m 0 min 0 min 27 W/m 0,0 km/h (0 Bft) 95,74 %
07.07.2018 06:14 16,4 C 15,6 C 15,0 C 71 % 1020,2 hPa 0,0 l/m 0 min 0 min 28 W/m 0,0 km/h (0 Bft) 97,87 %
07.07.2018 06:16 16,3 C 15,6 C 14,4 C 71 % 1020,3 hPa 0,0 l/m 0 min 0 min 30 W/m 0,0 km/h (0 Bft) 97,87 %
07.07.2018 06:18 16,3 C 15,6 C 15,0 C 71 % 1020,4 hPa 0,0 l/m 0 min 0 min 31 W/m 0,0 km/h (0 Bft) 95,74 %
07.07.2018 06:20 16,3 C 15,6 C 14,4 C 71 % 1020,4 hPa 0,0 l/m 0 min 0 min 32 W/m 0,0 km/h (0 Bft) 95,65 %
07.07.2018 06:22 16,3 C 15,6 C 14,4 C 71 % 1020,4 hPa 0,0 l/m 0 min 0 min 33 W/m 0,0 km/h (0 Bft) 98,31 %
07.07.2018 06:24 16,3 C 15,6 C 14,4 C 72 % 1020,4 hPa 0,0 l/m 0 min 0 min 33 W/m 0,0 km/h (0 Bft) 97,14 %
07.07.2018 06:26 16,3 C 15,6 C 14,4 C 72 % 1020,4 hPa 0,0 l/m 0 min 0 min 33 W/m 0,0 km/h (0 Bft) 97,87 %
07.07.2018 06:28 16,3 C 15,6 C 14,4 C 72 % 1020,4 hPa 0,0 l/m 0 min 0 min 34 W/m 0,0 km/h (0 Bft) 100,00 %
07.07.2018 06:30 16,3 C 15,6 C 14,4 C 72 % 1020,4 hPa 0,0 l/m 0 min 0 min 35 W/m 0,0 km/h (0 Bft) 100,00 %
07.07.2018 06:32 16,2 C 15,6 C 14,4 C 72 % 1020,5 hPa 0,0 l/m 0 min 0 min 37 W/m 0,0 km/h (0 Bft) 97,83 %
07.07.2018 06:34 16,2 C 15,6 C 14,4 C 72 % 1020,5 hPa 0,0 l/m 0 min 0 min 38 W/m 0,0 km/h (0 Bft) 100,00 %
07.07.2018 06:36 16,2 C 15,6 C 14,4 C 72 % 1020,5 hPa 0,0 l/m 0 min 0 min 39 W/m 0,0 km/h (0 Bft) 100,00 %
07.07.2018 06:38 16,2 C 15,6 C 15,0 C 73 % 1020,5 hPa 0,0 l/m 0 min 0 min 40 W/m 0,0 km/h (0 Bft) 100,00 %
07.07.2018 06:40 16,2 C 15,6 C 15,0 C 73 % 1020,6 hPa 0,0 l/m 0 min 0 min 40 W/m 0,0 km/h (0 Bft) 97,87 %
07.07.2018 06:42 16,2 C 16,1 C 15,0 C 73 % 1020,6 hPa 0,0 l/m 0 min 0 min 41 W/m 0,0 km/h (0 Bft) 97,87 %
07.07.2018 06:44 16,2 C 15,6 C 15,0 C 72 % 1020,6 hPa 0,0 l/m 0 min 0 min 42 W/m 0,0 km/h (0 Bft) 100,00 %
07.07.2018 06:46 16,1 C 15,6 C 15,0 C 73 % 1020,5 hPa 0,0 l/m 0 min 0 min 43 W/m 0,0 km/h (0 Bft) 100,00 %
07.07.2018 06:48 16,1 C 15,6 C 15,0 C 73 % 1020,5 hPa 0,0 l/m 0 min 0 min 44 W/m 0,0 km/h (0 Bft) 100,00 %
07.07.2018 06:50 16,1 C 15,6 C 15,0 C 73 % 1020,7 hPa 0,0 l/m 0 min 0 min 44 W/m 0,0 km/h (0 Bft) 100,00 %
07.07.2018 06:52 16,1 C 15,6 C 15,0 C 72 % 1020,7 hPa 0,0 l/m 0 min 0 min 45 W/m 0,0 km/h (0 Bft) 98,00 %
07.07.2018 06:54 16,1 C 16,1 C 15,0 C 72 % 1020,6 hPa 0,0 l/m 0 min 0 min 47 W/m 0,0 km/h (0 Bft) 100,00 %
07.07.2018 06:56 16,1 C 16,1 C 15,0 C 72 % 1020,7 hPa 0,0 l/m 0 min 0 min 49 W/m 0,0 km/h (0 Bft) 97,87 %
07.07.2018 06:58 16,0 C 16,1 C 15,0 C 72 % 1020,7 hPa 0,0 l/m 0 min 0 min 51 W/m 0,0 km/h (0 Bft) 100,00 %
07.07.2018 07:00 16,0 C 16,1 C 15,6 C 72 % 1020,7 hPa 0,0 l/m 0 min 0 min 53 W/m 0,0 km/h (0 Bft) 100,00 %
07.07.2018 07:02 16,0 C 16,1 C 15,6 C 72 % 1020,8 hPa 0,0 l/m 0 min 0 min 54 W/m 4,5 km/h (1 Bft) 97,92 %
07.07.2018 07:04 16,0 C 16,1 C 15,6 C 73 % 1020,8 hPa 0,0 l/m 0 min 0 min 55 W/m 4,5 km/h (1 Bft) 97,83 %
07.07.2018 07:06 16,0 C 16,1 C 15,6 C 72 % 1020,8 hPa 0,0 l/m 0 min 0 min 58 W/m 2,3 km/h (1 Bft) 97,87 %
07.07.2018 07:08 16,0 C 16,1 C 15,6 C 72 % 1020,8 hPa 0,0 l/m 0 min 0 min 60 W/m 2,3 km/h (1 Bft) 97,87 %
07.07.2018 07:10 16,0 C 16,1 C 15,6 C 73 % 1020,8 hPa 0,0 l/m 0 min 0 min 62 W/m 2,3 km/h (1 Bft) 97,87 %
07.07.2018 07:12 16,0 C 16,1 C 15,6 C 73 % 1020,8 hPa 0,0 l/m 0 min 0 min 64 W/m 2,3 km/h (1 Bft) 97,87 %
07.07.2018 07:14 16,0 C 16,1 C 15,6 C 73 % 1020,9 hPa 0,0 l/m 0 min 0 min 69 W/m 2,3 km/h (1 Bft) 97,87 %
07.07.2018 07:16 16,0 C 16,1 C 15,6 C 73 % 1020,8 hPa 0,0 l/m 0 min 0 min 77 W/m 2,3 km/h (1 Bft) 97,83 %
07.07.2018 07:18 16,0 C 16,7 C 15,6 C 73 % 1020,9 hPa 0,0 l/m 0 min 0 min 87 W/m 4,5 km/h (1 Bft) 97,87 %
07.07.2018 07:20 16,0 C 16,7 C 15,6 C 73 % 1020,9 hPa 0,0 l/m 0 min 0 min 91 W/m 2,3 km/h (1 Bft) 97,87 %
07.07.2018 07:22 16,1 C 16,7 C 16,1 C 73 % 1020,9 hPa 0,0 l/m 0 min 0 min 96 W/m 4,5 km/h (1 Bft) 97,87 %
07.07.2018 07:24 16,1 C 16,7 C 16,1 C 73 % 1020,9 hPa 0,0 l/m 0 min 0 min 93 W/m 4,5 km/h (1 Bft) 97,87 %
07.07.2018 07:26 16,1 C 16,7 C 16,1 C 72 % 1021,0 hPa 0,0 l/m 0 min 0 min 88 W/m 4,5 km/h (1 Bft) 97,87 %
07.07.2018 07:28 16,1 C 16,7 C 16,1 C 71 % 1021,1 hPa 0,0 l/m 0 min 0 min 90 W/m 6,8 km/h (2 Bft) 97,83 %
07.07.2018 07:30 16,1 C 16,7 C 16,1 C 71 % 1021,1 hPa 0,0 l/m 0 min 0 min 86 W/m 2,3 km/h (1 Bft) 95,74 %
07.07.2018 07:32 16,1 C 17,2 C 16,1 C 71 % 1021,1 hPa 0,0 l/m 0 min 0 min 85 W/m 4,5 km/h (1 Bft) 97,87 %
07.07.2018 07:34 16,1 C 17,2 C 16,1 C 71 % 1021,1 hPa 0,0 l/m 0 min 0 min 94 W/m 4,5 km/h (1 Bft) 97,87 %
07.07.2018 07:36 16,1 C 17,2 C 16,1 C 70 % 1021,1 hPa 0,0 l/m 0 min 0 min 104 W/m 6,8 km/h (2 Bft) 97,14 %
07.07.2018 07:38 16,2 C 17,2 C 16,1 C 70 % 1021,0 hPa 0,0 l/m 0 min 0 min 110 W/m 4,5 km/h (1 Bft) 97,87 %
07.07.2018 07:40 16,2 C 17,2 C 16,1 C 70 % 1021,0 hPa 0,0 l/m 0 min 0 min 104 W/m 4,5 km/h (1 Bft) 97,87 %
07.07.2018 07:42 16,2 C 17,2 C 16,1 C 70 % 1021,0 hPa 0,0 l/m 0 min 0 min 87 W/m 6,8 km/h (2 Bft) 97,83 %
07.07.2018 07:44 16,2 C 17,2 C 16,1 C 69 % 1021,0 hPa 0,0 l/m 0 min 0 min 73 W/m 9,0 km/h (2 Bft) 97,87 %
07.07.2018 07:46 16,3 C 17,2 C 16,1 C 69 % 1021,0 hPa 0,0 l/m 0 min 0 min 67 W/m 4,5 km/h (1 Bft) 97,87 %
07.07.2018 07:48 16,3 C 17,2 C 16,7 C 69 % 1021,0 hPa 0,0 l/m 0 min 0 min 65 W/m 4,5 km/h (1 Bft) 97,87 %
07.07.2018 07:50 16,3 C 17,2 C 16,7 C 69 % 1021,0 hPa 0,0 l/m 0 min 0 min 67 W/m 6,8 km/h (2 Bft) 96,61 %
07.07.2018 07:52 16,4 C 17,2 C 16,7 C 68 % 1021,1 hPa 0,0 l/m 0 min 0 min 69 W/m 6,8 km/h (2 Bft) 97,83 %
07.07.2018 07:54 16,4 C 17,2 C 16,7 C 68 % 1021,1 hPa 0,0 l/m 0 min 0 min 69 W/m 4,5 km/h (1 Bft) 97,14 %
07.07.2018 07:56 16,5 C 17,2 C 16,7 C 68 % 1021,1 hPa 0,0 l/m 0 min 0 min 67 W/m 4,5 km/h (1 Bft) 97,87 %
07.07.2018 07:58 16,5 C 17,2 C 16,7 C 68 % 1021,1 hPa 0,0 l/m 0 min 0 min 67 W/m 4,5 km/h (1 Bft) 97,87 %
07.07.2018 08:00 16,6 C 17,8 C 16,7 C 68 % 1021,1 hPa 0,0 l/m 0 min 0 min 69 W/m 6,8 km/h (2 Bft) 97,87 %
07.07.2018 08:02 16,6 C 17,8 C 16,7 C 68 % 1021,2 hPa 0,0 l/m 0 min 0 min 72 W/m 4,5 km/h (1 Bft) 98,11 %
07.07.2018 08:04 16,7 C 18,9 C 16,7 C 68 % 1021,2 hPa 0,0 l/m 0 min 0 min 75 W/m 4,5 km/h (1 Bft) 93,62 %
07.07.2018 08:06 16,7 C 20,0 C 16,7 C 67 % 1021,2 hPa 0,0 l/m 0 min 0 min 76 W/m 6,8 km/h (2 Bft) 94,23 %
07.07.2018 08:08 16,8 C 20,0 C 16,7 C 67 % 1021,1 hPa 0,0 l/m 0 min 0 min 74 W/m 4,5 km/h (1 Bft) 95,74 %
07.07.2018 08:10 16,8 C 19,4 C 16,7 C 67 % 1021,1 hPa 0,0 l/m 0 min 0 min 72 W/m 6,8 km/h (2 Bft) 95,74 %
07.07.2018 08:12 16,9 C 18,9 C 16,7 C 66 % 1021,1 hPa 0,0 l/m 0 min 0 min 74 W/m 4,5 km/h (1 Bft) 97,87 %
07.07.2018 08:14 17,0 C 18,9 C 17,2 C 67 % 1021,1 hPa 0,0 l/m 0 min 0 min 138 W/m 6,8 km/h (2 Bft) 93,48 %
07.07.2018 08:16 17,1 C 19,4 C 17,2 C 67 % 1021,1 hPa 0,0 l/m 2 min 0 min 256 W/m 4,5 km/h (1 Bft) 93,62 %
07.07.2018 08:18 17,2 C 19,4 C 17,2 C 67 % 1021,1 hPa 0,0 l/m 2 min 0 min 276 W/m 2,3 km/h (1 Bft) 97,87 %
07.07.2018 08:20 17,2 C 19,4 C 17,2 C 67 % 1021,1 hPa 0,0 l/m 2 min 0 min 285 W/m 4,5 km/h (1 Bft) 95,74 %
07.07.2018 08:22 17,3 C 19,4 C 17,2 C 67 % 1021,2 hPa 0,0 l/m 2 min 0 min 299 W/m 4,5 km/h (1 Bft) 95,74 %
07.07.2018 08:24 17,4 C 19,4 C 17,2 C 67 % 1021,1 hPa 0,0 l/m 2 min 0 min 302 W/m 6,8 km/h (2 Bft) 91,49 %
07.07.2018 08:26 17,5 C 19,4 C 17,2 C 66 % 1021,2 hPa 0,0 l/m 2 min 0 min 305 W/m 4,5 km/h (1 Bft) 93,48 %
07.07.2018 08:28 17,6 C 19,4 C 17,2 C 66 % 1021,2 hPa 0,0 l/m 2 min 0 min 307 W/m 4,5 km/h (1 Bft) 95,74 %
07.07.2018 08:30 17,7 C 19,4 C 17,2 C 66 % 1021,2 hPa 0,0 l/m 2 min 0 min 291 W/m 6,8 km/h (2 Bft) 95,74 %
07.07.2018 08:32 17,8 C 19,4 C 17,2 C 65 % 1021,2 hPa 0,0 l/m 2 min 0 min 247 W/m 4,5 km/h (1 Bft) 95,74 %
07.07.2018 08:34 17,9 C 19,4 C 17,2 C 65 % 1021,2 hPa 0,0 l/m 2 min 0 min 255 W/m 4,5 km/h (1 Bft) 93,62 %
07.07.2018 08:36 18,0 C 19,4 C 17,8 C 65 % 1021,2 hPa 0,0 l/m 2 min 0 min 338 W/m 6,8 km/h (2 Bft) 92,86 %
07.07.2018 08:38 18,1 C 19,4 C 17,8 C 64 % 1021,2 hPa 0,0 l/m 2 min 0 min 338 W/m 4,5 km/h (1 Bft) 95,74 %
07.07.2018 08:40 18,2 C 20,0 C 17,8 C 64 % 1021,2 hPa 0,0 l/m 2 min 0 min 340 W/m 4,5 km/h (1 Bft) 95,74 %
07.07.2018 08:42 18,3 C 20,0 C 17,8 C 64 % 1021,2 hPa 0,0 l/m 2 min 0 min 348 W/m 4,5 km/h (1 Bft) 93,62 %
07.07.2018 08:44 18,3 C 20,0 C 17,8 C 63 % 1021,2 hPa 0,0 l/m 2 min 0 min 354 W/m 6,8 km/h (2 Bft) 97,83 %
07.07.2018 08:46 18,4 C 20,0 C 17,8 C 62 % 1021,2 hPa 0,0 l/m 2 min 0 min 355 W/m 6,8 km/h (2 Bft) 97,87 %
07.07.2018 08:48 18,5 C 20,0 C 17,8 C 63 % 1021,2 hPa 0,0 l/m 2 min 0 min 361 W/m 4,5 km/h (1 Bft) 97,87 %
07.07.2018 08:50 18,6 C 20,0 C 18,3 C 63 % 1021,2 hPa 0,0 l/m 2 min 0 min 367 W/m 4,5 km/h (1 Bft) 93,62 %
07.07.2018 08:52 18,7 C 20,0 C 18,3 C 63 % 1021,2 hPa 0,0 l/m 2 min 0 min 370 W/m 4,5 km/h (1 Bft) 95,74 %
07.07.2018 08:54 18,7 C 20,6 C 18,3 C 62 % 1021,3 hPa 0,0 l/m 2 min 0 min 377 W/m 4,5 km/h (1 Bft) 95,74 %
07.07.2018 08:56 18,8 C 20,6 C 18,3 C 62 % 1021,3 hPa 0,0 l/m 2 min 0 min 384 W/m 6,8 km/h (2 Bft) 95,65 %
07.07.2018 08:58 18,9 C 20,0 C 18,3 C 60 % 1021,4 hPa 0,0 l/m 2 min 0 min 387 W/m 9,0 km/h (2 Bft) 97,87 %
07.07.2018 09:00 19,0 C 20,6 C 18,3 C 60 % 1021,4 hPa 0,0 l/m 2 min 0 min 397 W/m 0,0 km/h (0 Bft) 95,74 %
07.07.2018 09:02 19,1 C 20,6 C 18,3 C 61 % 1021,5 hPa 0,0 l/m 2 min 0 min 406 W/m 4,5 km/h (1 Bft) 95,83 %
07.07.2018 09:04 19,1 C 20,6 C 18,3 C 60 % 1021,4 hPa 0,0 l/m 2 min 0 min 410 W/m 4,5 km/h (1 Bft) 97,87 %
07.07.2018 09:06 19,2 C 20,6 C 18,3 C 60 % 1021,4 hPa 0,0 l/m 2 min 0 min 413 W/m 9,0 km/h (2 Bft) 97,87 %
07.07.2018 09:08 19,2 C 20,6 C 18,3 C 59 % 1021,5 hPa 0,0 l/m 2 min 0 min 419 W/m 9,0 km/h (2 Bft) 97,83 %
07.07.2018 09:10 19,3 C 21,1 C 18,3 C 59 % 1021,4 hPa 0,0 l/m 2 min 0 min 426 W/m 4,5 km/h (1 Bft) 97,87 %
07.07.2018 09:12 19,4 C 21,1 C 18,9 C 59 % 1021,5 hPa 0,0 l/m 2 min 0 min 428 W/m 6,8 km/h (2 Bft) 100,00 %
07.07.2018 09:14 19,4 C 21,1 C 18,9 C 59 % 1021,4 hPa 0,0 l/m 2 min 0 min 435 W/m 6,8 km/h (2 Bft) 100,00 %
07.07.2018 09:16 19,5 C 21,1 C 18,9 C 58 % 1021,4 hPa 0,0 l/m 2 min 0 min 441 W/m 6,8 km/h (2 Bft) 100,00 %
07.07.2018 09:18 19,6 C 21,1 C 18,9 C 57 % 1021,3 hPa 0,0 l/m 2 min 0 min 445 W/m 9,0 km/h (2 Bft) 100,00 %
07.07.2018 09:20 19,7 C 21,1 C 18,9 C 56 % 1021,4 hPa 0,0 l/m 2 min 0 min 450 W/m 6,8 km/h (2 Bft) 100,00 %
07.07.2018 09:22 19,8 C 21,1 C 18,9 C 56 % 1021,4 hPa 0,0 l/m 2 min 0 min 453 W/m 6,8 km/h (2 Bft) 100,00 %
07.07.2018 09:24 19,8 C 21,7 C 18,9 C 56 % 1021,4 hPa 0,0 l/m 2 min 0 min 456 W/m 6,8 km/h (2 Bft) 100,00 %
07.07.2018 09:26 19,9 C 21,1 C 18,9 C 55 % 1021,4 hPa 0,0 l/m 2 min 0 min 464 W/m 4,5 km/h (1 Bft) 100,00 %
07.07.2018 09:28 19,9 C 21,1 C 18,9 C 55 % 1021,4 hPa 0,0 l/m 2 min 0 min 473 W/m 4,5 km/h (1 Bft) 100,00 %
07.07.2018 09:30 20,0 C 21,1 C 18,9 C 56 % 1021,3 hPa 0,0 l/m 2 min 0 min 481 W/m 4,5 km/h (1 Bft) 100,00 %
07.07.2018 09:32 20,1 C 21,1 C 18,9 C 56 % 1021,4 hPa 0,0 l/m 2 min 0 min 485 W/m 6,8 km/h (2 Bft) 100,00 %
07.07.2018 09:34 20,2 C 21,1 C 18,9 C 56 % 1021,3 hPa 0,0 l/m 2 min 0 min 486 W/m 6,8 km/h (2 Bft) 100,00 %
07.07.2018 09:36 20,2 C 21,7 C 19,4 C 56 % 1021,4 hPa 0,0 l/m 2 min 0 min 492 W/m 4,5 km/h (1 Bft) 100,00 %
07.07.2018 09:38 20,3 C 21,7 C 19,4 C 55 % 1021,4 hPa 0,0 l/m 2 min 0 min 493 W/m 4,5 km/h (1 Bft) 100,00 %
07.07.2018 09:40 20,3 C 21,7 C 19,4 C 56 % 1021,4 hPa 0,0 l/m 2 min 0 min 497 W/m 9,0 km/h (2 Bft) 100,00 %
07.07.2018 09:42 20,4 C 21,7 C 19,4 C 56 % 1021,5 hPa 0,0 l/m 2 min 0 min 505 W/m 9,0 km/h (2 Bft) 97,87 %
07.07.2018 09:44 20,4 C 21,1 C 19,4 C 53 % 1021,5 hPa 0,0 l/m 2 min 0 min 511 W/m 9,0 km/h (2 Bft) 100,00 %
07.07.2018 09:46 20,6 C 21,1 C 19,4 C 53 % 1021,4 hPa 0,0 l/m 2 min 0 min 520 W/m 6,8 km/h (2 Bft) 100,00 %
07.07.2018 09:48 20,6 C 21,1 C 19,4 C 53 % 1021,5 hPa 0,0 l/m 2 min 0 min 526 W/m 9,0 km/h (2 Bft) 100,00 %
07.07.2018 09:50 20,7 C 21,1 C 18,9 C 54 % 1021,3 hPa 0,0 l/m 2 min 0 min 529 W/m 4,5 km/h (1 Bft) 100,00 %
07.07.2018 09:52 20,7 C 21,1 C 19,4 C 54 % 1021,4 hPa 0,0 l/m 2 min 0 min 534 W/m 4,5 km/h (1 Bft) 100,00 %
07.07.2018 09:54 20,8 C 21,7 C 19,4 C 53 % 1021,4 hPa 0,0 l/m 2 min 0 min 541 W/m 6,8 km/h (2 Bft) 100,00 %
07.07.2018 09:56 20,8 C 21,7 C 19,4 C 54 % 1021,4 hPa 0,0 l/m 2 min 0 min 548 W/m 6,8 km/h (2 Bft) 100,00 %
07.07.2018 09:58 20,9 C 22,2 C 19,4 C 53 % 1021,4 hPa 0,0 l/m 2 min 0 min 552 W/m 9,0 km/h (2 Bft) 100,00 %
07.07.2018 10:00 20,9 C 22,8 C 19,4 C 52 % 1021,4 hPa 0,0 l/m 2 min 0 min 555 W/m 9,0 km/h (2 Bft) 100,00 %
07.07.2018 10:02 21,0 C 23,9 C 19,4 C 54 % 1021,4 hPa 0,0 l/m 2 min 0 min 562 W/m 4,5 km/h (1 Bft) 100,00 %
07.07.2018 10:04 21,0 C 24,4 C 19,4 C 54 % 1021,4 hPa 0,0 l/m 2 min 0 min 568 W/m 4,5 km/h (1 Bft) 100,00 %
07.07.2018 10:06 21,0 C 23,9 C 19,4 C 53 % 1021,3 hPa 0,0 l/m 2 min 0 min 572 W/m 6,8 km/h (2 Bft) 100,00 %
07.07.2018 10:08 21,1 C 22,8 C 19,4 C 53 % 1021,3 hPa 0,0 l/m 2 min 0 min 577 W/m 6,8 km/h (2 Bft) 100,00 %
07.07.2018 10:10 21,1 C 22,8 C 19,4 C 54 % 1021,3 hPa 0,0 l/m 2 min 0 min 582 W/m 2,3 km/h (1 Bft) 100,00 %
07.07.2018 10:12 21,2 C 22,8 C 20,0 C 53 % 1021,3 hPa 0,0 l/m 2 min 0 min 587 W/m 9,0 km/h (2 Bft) 100,00 %
07.07.2018 10:14 21,2 C 22,2 C 20,0 C 52 % 1021,3 hPa 0,0 l/m 2 min 0 min 594 W/m 9,0 km/h (2 Bft) 100,00 %
07.07.2018 10:16 21,3 C 22,2 C 20,0 C 52 % 1021,3 hPa 0,0 l/m 2 min 0 min 600 W/m 9,0 km/h (2 Bft) 100,00 %
07.07.2018 10:18 21,3 C 22,2 C 20,0 C 53 % 1021,3 hPa 0,0 l/m 2 min 0 min 604 W/m 9,0 km/h (2 Bft) 95,74 %
07.07.2018 10:20 21,4 C 22,8 C 20,6 C 51 % 1021,4 hPa 0,0 l/m 2 min 0 min 604 W/m 9,0 km/h (2 Bft) 97,87 %
07.07.2018 10:22 21,4 C 22,8 C 20,0 C 52 % 1021,3 hPa 0,0 l/m 2 min 0 min 609 W/m 9,0 km/h (2 Bft) 95,65 %
07.07.2018 10:24 21,4 C 22,8 C 20,0 C 53 % 1021,3 hPa 0,0 l/m 2 min 0 min 618 W/m 4,5 km/h (1 Bft) 97,87 %
07.07.2018 10:26 21,5 C 22,8 C 20,0 C 53 % 1021,3 hPa 0,0 l/m 2 min 0 min 624 W/m 4,5 km/h (1 Bft) 97,87 %
07.07.2018 10:28 21,6 C 22,8 C 20,0 C 53 % 1021,3 hPa 0,0 l/m 2 min 0 min 630 W/m 9,0 km/h (2 Bft) 95,74 %
07.07.2018 10:30 21,6 C 22,8 C 20,6 C 52 % 1021,3 hPa 0,0 l/m 2 min 0 min 629 W/m 9,0 km/h (2 Bft) 97,87 %
07.07.2018 10:32 21,7 C 22,8 C 20,0 C 52 % 1021,3 hPa 0,0 l/m 2 min 0 min 637 W/m 9,0 km/h (2 Bft) 97,87 %
07.07.2018 10:34 21,7 C 22,8 C 20,6 C 52 % 1021,3 hPa 0,0 l/m 2 min 0 min 640 W/m 9,0 km/h (2 Bft) 95,65 %
07.07.2018 10:36 21,7 C 22,8 C 20,6 C 51 % 1021,3 hPa 0,0 l/m 2 min 0 min 646 W/m 9,0 km/h (2 Bft) 95,74 %
07.07.2018 10:38 21,8 C 22,8 C 20,6 C 52 % 1021,3 hPa 0,0 l/m 2 min 0 min 650 W/m 4,5 km/h (1 Bft) 95,74 %
07.07.2018 10:40 21,8 C 22,8 C 20,6 C 52 % 1021,4 hPa 0,0 l/m 2 min 0 min 654 W/m 11,3 km/h (2 Bft) 95,74 %
07.07.2018 10:42 21,9 C 22,8 C 20,6 C 51 % 1021,4 hPa 0,0 l/m 2 min 0 min 659 W/m 6,8 km/h (2 Bft) 93,62 %
07.07.2018 10:44 21,9 C 23,3 C 20,6 C 52 % 1021,4 hPa 0,0 l/m 2 min 0 min 664 W/m 9,0 km/h (2 Bft) 95,74 %
07.07.2018 10:46 21,9 C 23,3 C 20,6 C 51 % 1021,3 hPa 0,0 l/m 2 min 0 min 668 W/m 9,0 km/h (2 Bft) 95,65 %
07.07.2018 10:48 22,1 C 23,3 C 20,6 C 51 % 1021,3 hPa 0,0 l/m 2 min 0 min 672 W/m 20,3 km/h (4 Bft) 95,74 %
07.07.2018 10:50 22,1 C 23,3 C 20,6 C 52 % 1021,3 hPa 0,0 l/m 2 min 0 min 672 W/m 13,5 km/h (3 Bft) 95,74 %
07.07.2018 10:52 22,2 C 23,9 C 20,6 C 51 % 1021,3 hPa 0,0 l/m 2 min 0 min 677 W/m 13,5 km/h (3 Bft) 95,74 %
07.07.2018 10:54 22,3 C 23,9 C 20,6 C 51 % 1021,4 hPa 0,0 l/m 2 min 0 min 677 W/m 9,0 km/h (2 Bft) 95,74 %
07.07.2018 10:56 22,4 C 23,9 C 20,6 C 50 % 1021,4 hPa 0,0 l/m 2 min 0 min 686 W/m 6,8 km/h (2 Bft) 95,74 %
07.07.2018 10:58 22,4 C 25,6 C 20,6 C 50 % 1021,4 hPa 0,0 l/m 2 min 0 min 688 W/m 9,0 km/h (2 Bft) 93,48 %
07.07.2018 11:00 22,5 C 27,2 C 20,6 C 50 % 1021,4 hPa 0,0 l/m 2 min 0 min 695 W/m 4,5 km/h (1 Bft) 93,62 %
07.07.2018 11:02 22,6 C 28,9 C 20,6 C 51 % 1021,4 hPa 0,0 l/m 2 min 0 min 700 W/m 4,5 km/h (1 Bft) 95,74 %
07.07.2018 11:04 22,7 C 28,9 C 20,6 C 51 % 1021,3 hPa 0,0 l/m 2 min 0 min 703 W/m 11,3 km/h (2 Bft) 93,62 %
07.07.2018 11:06 22,7 C 27,2 C 21,1 C 50 % 1021,4 hPa 0,0 l/m 2 min 0 min 712 W/m 11,3 km/h (2 Bft) 93,62 %
07.07.2018 11:08 22,8 C 27,8 C 21,1 C 51 % 1021,4 hPa 0,0 l/m 2 min 0 min 715 W/m 11,3 km/h (2 Bft) 93,62 %
07.07.2018 11:10 22,9 C 27,2 C 20,6 C 51 % 1021,4 hPa 0,0 l/m 2 min 0 min 713 W/m 13,5 km/h (3 Bft) 93,48 %
07.07.2018 11:12 23,0 C 27,2 C 20,6 C 51 % 1021,4 hPa 0,0 l/m 2 min 0 min 716 W/m 11,3 km/h (2 Bft) 97,87 %
07.07.2018 11:14 23,1 C 27,2 C 21,1 C 51 % 1021,4 hPa 0,0 l/m 2 min 0 min 723 W/m 13,5 km/h (3 Bft) 97,87 %
07.07.2018 11:16 23,2 C 28,3 C 21,1 C 52 % 1021,4 hPa 0,0 l/m 2 min 0 min 724 W/m 11,3 km/h (2 Bft) 95,74 %
07.07.2018 11:18 23,3 C 30,0 C 21,1 C 51 % 1021,4 hPa 0,0 l/m 2 min 0 min 730 W/m 11,3 km/h (2 Bft) 95,74 %
07.07.2018 11:20 23,4 C 30,6 C 21,1 C 51 % 1021,5 hPa 0,0 l/m 2 min 0 min 734 W/m 13,5 km/h (3 Bft) 95,74 %
07.07.2018 11:22 23,5 C 32,2 C 21,1 C 51 % 1021,4 hPa 0,0 l/m 2 min 0 min 733 W/m 4,5 km/h (1 Bft) 97,83 %
07.07.2018 11:24 23,6 C 32,2 C 21,1 C 51 % 1021,5 hPa 0,0 l/m 2 min 0 min 735 W/m 6,8 km/h (2 Bft) 100,00 %
07.07.2018 11:26 23,8 C 32,8 C 21,1 C 50 % 1021,4 hPa 0,0 l/m 2 min 0 min 736 W/m 9,0 km/h (2 Bft) 100,00 %
07.07.2018 11:28 23,9 C 33,9 C 21,1 C 49 % 1021,4 hPa 0,0 l/m 2 min 0 min 745 W/m 9,0 km/h (2 Bft) 95,74 %
07.07.2018 11:30 24,0 C 33,9 C 21,1 C 48 % 1021,4 hPa 0,0 l/m 2 min 0 min 753 W/m 9,0 km/h (2 Bft) 95,74 %
07.07.2018 11:32 24,1 C 34,4 C 21,1 C 50 % 1021,4 hPa 0,0 l/m 2 min 0 min 756 W/m 9,0 km/h (2 Bft) 100,00 %
07.07.2018 11:34 24,2 C 35,0 C 21,1 C 50 % 1021,4 hPa 0,0 l/m 2 min 0 min 761 W/m 11,3 km/h (2 Bft) 100,00 %
07.07.2018 11:36 24,3 C 34,4 C 21,1 C 49 % 1021,4 hPa 0,0 l/m 2 min 0 min 764 W/m 11,3 km/h (2 Bft) 97,83 %
07.07.2018 11:38 24,4 C 34,4 C 21,7 C 49 % 1021,4 hPa 0,0 l/m 2 min 0 min 765 W/m 11,3 km/h (2 Bft) 97,87 %
07.07.2018 11:40 24,6 C 34,4 C 21,7 C 49 % 1021,4 hPa 0,0 l/m 2 min 0 min 772 W/m 9,0 km/h (2 Bft) 95,74 %
07.07.2018 11:42 24,7 C 34,4 C 21,1 C 49 % 1021,4 hPa 0,0 l/m 2 min 0 min 773 W/m 6,8 km/h (2 Bft) 95,74 %
07.07.2018 11:44 24,8 C 33,9 C 21,7 C 48 % 1021,5 hPa 0,0 l/m 2 min 0 min 769 W/m 11,3 km/h (2 Bft) 97,87 %
07.07.2018 11:46 24,9 C 33,9 C 21,7 C 48 % 1021,4 hPa 0,0 l/m 2 min 0 min 779 W/m 11,3 km/h (2 Bft) 97,87 %
07.07.2018 11:48 24,9 C 34,4 C 21,1 C 47 % 1021,4 hPa 0,0 l/m 2 min 0 min 786 W/m 9,0 km/h (2 Bft) 97,83 %
07.07.2018 11:50 25,1 C 33,9 C 21,7 C 48 % 1021,4 hPa 0,0 l/m 2 min 0 min 792 W/m 11,3 km/h (2 Bft) 97,87 %
07.07.2018 11:52 25,1 C 33,3 C 21,7 C 47 % 1021,4 hPa 0,0 l/m 2 min 0 min 795 W/m 20,3 km/h (4 Bft) 97,87 %
07.07.2018 11:54 25,2 C 33,3 C 21,7 C 48 % 1021,4 hPa 0,0 l/m 2 min 0 min 774 W/m 11,3 km/h (2 Bft) 98,11 %
07.07.2018 11:56 25,3 C 33,3 C 21,7 C 47 % 1021,4 hPa 0,0 l/m 2 min 0 min 796 W/m 11,3 km/h (2 Bft) 95,74 %
07.07.2018 11:58 25,3 C 33,3 C 21,7 C 47 % 1021,4 hPa 0,0 l/m 2 min 0 min 802 W/m 11,3 km/h (2 Bft) 97,87 %
07.07.2018 12:00 25,4 C 32,8 C 22,2 C 48 % 1021,4 hPa 0,0 l/m 2 min 0 min 800 W/m 11,3 km/h (2 Bft) 97,87 %
07.07.2018 12:02 25,4 C 33,3 C 21,7 C 47 % 1021,4 hPa 0,0 l/m 2 min 0 min 803 W/m 11,3 km/h (2 Bft) 95,74 %
07.07.2018 12:04 25,5 C 34,4 C 21,7 C 48 % 1021,4 hPa 0,0 l/m 2 min 0 min 806 W/m 9,0 km/h (2 Bft) 95,65 %
07.07.2018 12:08 25,7 C 33,9 C 22,2 C 48 % 1021,3 hPa 0,0 l/m 4 min 0 min 808 W/m 13,5 km/h (3 Bft) 96,88 %
07.07.2018 12:10 25,7 C 32,8 C 22,2 C 46 % 1021,3 hPa 0,0 l/m 2 min 0 min 813 W/m 6,8 km/h (2 Bft) 97,87 %
07.07.2018 12:12 25,7 C 32,8 C 22,2 C 45 % 1021,3 hPa 0,0 l/m 2 min 0 min 821 W/m 15,8 km/h (3 Bft) 95,74 %
07.07.2018 12:14 25,8 C 33,9 C 22,2 C 47 % 1021,5 hPa 0,0 l/m 2 min 0 min 821 W/m 9,0 km/h (2 Bft) 97,87 %
07.07.2018 12:16 25,8 C 32,8 C 22,2 C 44 % 1021,4 hPa 0,0 l/m 2 min 0 min 821 W/m 6,8 km/h (2 Bft) 97,83 %
07.07.2018 12:18 25,8 C 33,9 C 22,2 C 47 % 1021,4 hPa 0,0 l/m 2 min 0 min 826 W/m 4,5 km/h (1 Bft) 97,87 %
07.07.2018 12:20 25,9 C 34,4 C 22,2 C 46 % 1021,3 hPa 0,0 l/m 2 min 0 min 826 W/m 13,5 km/h (3 Bft) 97,87 %
07.07.2018 12:22 25,9 C 35,0 C 22,2 C 47 % 1021,3 hPa 0,0 l/m 2 min 0 min 832 W/m 11,3 km/h (2 Bft) 97,92 %
07.07.2018 12:24 26,1 C 34,4 C 22,8 C 47 % 1021,3 hPa 0,0 l/m 2 min 0 min 831 W/m 13,5 km/h (3 Bft) 97,87 %
07.07.2018 12:26 26,1 C 34,4 C 22,2 C 47 % 1021,3 hPa 0,0 l/m 2 min 0 min 829 W/m 9,0 km/h (2 Bft) 97,83 %
07.07.2018 12:28 26,1 C 33,9 C 22,8 C 46 % 1021,4 hPa 0,0 l/m 2 min 0 min 841 W/m 13,5 km/h (3 Bft) 97,87 %
07.07.2018 12:30 26,2 C 33,9 C 22,8 C 46 % 1021,4 hPa 0,0 l/m 2 min 0 min 842 W/m 11,3 km/h (2 Bft) 100,00 %
07.07.2018 12:32 26,2 C 33,3 C 22,8 C 45 % 1021,3 hPa 0,0 l/m 2 min 0 min 848 W/m 15,8 km/h (3 Bft) 100,00 %
07.07.2018 12:34 26,2 C 33,9 C 22,8 C 45 % 1021,4 hPa 0,0 l/m 2 min 0 min 847 W/m 13,5 km/h (3 Bft) 100,00 %
07.07.2018 12:36 26,3 C 33,3 C 22,8 C 45 % 1021,5 hPa 0,0 l/m 2 min 0 min 850 W/m 6,8 km/h (2 Bft) 100,00 %
07.07.2018 12:38 26,3 C 33,3 C 22,8 C 45 % 1021,4 hPa 0,0 l/m 2 min 0 min 850 W/m 9,0 km/h (2 Bft) 100,00 %
07.07.2018 12:40 26,3 C 33,9 C 22,8 C 44 % 1021,3 hPa 0,0 l/m 2 min 0 min 851 W/m 20,3 km/h (4 Bft) 100,00 %
07.07.2018 12:42 26,3 C 32,2 C 22,8 C 43 % 1021,3 hPa 0,0 l/m 2 min 0 min 855 W/m 6,8 km/h (2 Bft) 100,00 %
07.07.2018 12:44 26,2 C 32,8 C 22,8 C 44 % 1021,4 hPa 0,0 l/m 2 min 0 min 855 W/m 18,0 km/h (3 Bft) 100,00 %
07.07.2018 12:46 26,2 C 32,8 C 22,8 C 45 % 1021,3 hPa 0,0 l/m 2 min 0 min 856 W/m 11,3 km/h (2 Bft) 97,87 %
07.07.2018 12:48 26,2 C 32,8 C 22,8 C 43 % 1021,4 hPa 0,0 l/m 2 min 0 min 859 W/m 13,5 km/h (3 Bft) 100,00 %
07.07.2018 12:50 26,2 C 32,2 C 22,8 C 44 % 1021,4 hPa 0,0 l/m 2 min 0 min 862 W/m 15,8 km/h (3 Bft) 100,00 %
07.07.2018 12:52 26,2 C 33,3 C 22,8 C 44 % 1021,4 hPa 0,0 l/m 2 min 0 min 861 W/m 11,3 km/h (2 Bft) 97,87 %
07.07.2018 12:54 26,2 C 32,2 C 22,8 C 44 % 1021,3 hPa 0,0 l/m 2 min 0 min 865 W/m 13,5 km/h (3 Bft) 100,00 %
07.07.2018 12:56 26,1 C 31,1 C 22,8 C 43 % 1021,3 hPa 0,0 l/m 2 min 0 min 867 W/m 9,0 km/h (2 Bft) 100,00 %
07.07.2018 12:58 26,1 C 32,2 C 22,8 C 45 % 1021,3 hPa 0,0 l/m 2 min 0 min 866 W/m 18,0 km/h (3 Bft) 100,00 %
07.07.2018 13:00 26,1 C 33,3 C 23,3 C 45 % 1021,3 hPa 0,0 l/m 2 min 0 min 870 W/m 11,3 km/h (2 Bft) 100,00 %
07.07.2018 13:02 26,1 C 33,9 C 23,3 C 45 % 1021,3 hPa 0,0 l/m 2 min 0 min 872 W/m 6,8 km/h (2 Bft) 97,87 %
07.07.2018 13:04 26,1 C 35,0 C 22,8 C 46 % 1021,3 hPa 0,0 l/m 2 min 0 min 882 W/m 9,0 km/h (2 Bft) 97,87 %
07.07.2018 13:06 26,2 C 34,4 C 22,8 C 45 % 1021,2 hPa 0,0 l/m 2 min 0 min 878 W/m 15,8 km/h (3 Bft) 100,00 %
07.07.2018 13:08 26,2 C 33,9 C 23,3 C 44 % 1021,3 hPa 0,0 l/m 2 min 0 min 878 W/m 11,3 km/h (2 Bft) 95,74 %
07.07.2018 13:10 26,2 C 33,9 C 23,3 C 45 % 1021,3 hPa 0,0 l/m 2 min 0 min 881 W/m 15,8 km/h (3 Bft) 97,87 %
07.07.2018 13:12 26,2 C 33,3 C 23,3 C 45 % 1021,2 hPa 0,0 l/m 2 min 0 min 868 W/m 15,8 km/h (3 Bft) 97,87 %
07.07.2018 13:14 26,2 C 33,3 C 23,3 C 45 % 1021,3 hPa 0,0 l/m 2 min 0 min 871 W/m 11,3 km/h (2 Bft) 97,83 %
07.07.2018 13:16 26,2 C 33,3 C 23,3 C 44 % 1021,3 hPa 0,0 l/m 2 min 0 min 881 W/m 15,8 km/h (3 Bft) 97,87 %
07.07.2018 13:18 26,2 C 33,9 C 23,3 C 45 % 1021,2 hPa 0,0 l/m 2 min 0 min 891 W/m 18,0 km/h (3 Bft) 97,87 %
07.07.2018 13:20 26,1 C 33,3 C 23,3 C 45 % 1021,2 hPa 0,0 l/m 2 min 0 min 881 W/m 9,0 km/h (2 Bft) 95,74 %
07.07.2018 13:22 26,1 C 32,8 C 23,3 C 45 % 1021,2 hPa 0,0 l/m 2 min 0 min 881 W/m 15,8 km/h (3 Bft) 97,87 %
07.07.2018 13:24 26,1 C 32,2 C 23,3 C 45 % 1021,2 hPa 0,0 l/m 2 min 0 min 888 W/m 18,0 km/h (3 Bft) 97,87 %
07.07.2018 13:26 26,0 C 32,2 C 23,3 C 45 % 1021,2 hPa 0,0 l/m 2 min 0 min 888 W/m 15,8 km/h (3 Bft) 97,83 %
07.07.2018 13:28 25,9 C 32,8 C 23,9 C 46 % 1021,1 hPa 0,0 l/m 2 min 0 min 882 W/m 11,3 km/h (2 Bft) 97,87 %
07.07.2018 13:30 25,9 C 32,8 C 23,9 C 46 % 1021,1 hPa 0,0 l/m 2 min 0 min 881 W/m 13,5 km/h (3 Bft) 97,87 %
07.07.2018 13:32 25,9 C 33,3 C 23,9 C 47 % 1021,1 hPa 0,0 l/m 2 min 0 min 885 W/m 4,5 km/h (1 Bft) 97,92 %
07.07.2018 13:34 26,0 C 33,3 C 23,9 C 47 % 1021,1 hPa 0,0 l/m 2 min 0 min 884 W/m 6,8 km/h (2 Bft) 97,87 %
07.07.2018 13:36 26,0 C 31,7 C 23,9 C 46 % 1021,1 hPa 0,0 l/m 2 min 0 min 892 W/m 9,0 km/h (2 Bft) 93,75 %
07.07.2018 13:38 26,1 C 31,1 C 23,9 C 46 % 1021,1 hPa 0,0 l/m 2 min 0 min 893 W/m 18,0 km/h (3 Bft) 97,87 %
07.07.2018 13:40 26,1 C 30,6 C 23,9 C 46 % 1021,1 hPa 0,0 l/m 2 min 0 min 894 W/m 13,5 km/h (3 Bft) 95,74 %
07.07.2018 13:42 26,1 C 28,3 C 23,9 C 46 % 1021,1 hPa 0,0 l/m 2 min 0 min 896 W/m 13,5 km/h (3 Bft) 95,65 %
07.07.2018 13:44 26,1 C 27,2 C 23,9 C 46 % 1021,0 hPa 0,0 l/m 2 min 0 min 896 W/m 11,3 km/h (2 Bft) 93,62 %
07.07.2018 13:46 26,1 C 26,7 C 23,9 C 47 % 1021,0 hPa 0,0 l/m 2 min 0 min 904 W/m 11,3 km/h (2 Bft) 91,49 %
07.07.2018 13:48 26,1 C 26,7 C 24,4 C 48 % 1021,1 hPa 0,0 l/m 2 min 0 min 897 W/m 13,5 km/h (3 Bft) 95,83 %
07.07.2018 13:50 26,1 C 26,1 C 23,9 C 46 % 1021,1 hPa 0,0 l/m 2 min 0 min 901 W/m 15,8 km/h (3 Bft) 95,74 %
07.07.2018 13:52 26,1 C 26,1 C 23,9 C 47 % 1021,1 hPa 0,0 l/m 2 min 0 min 888 W/m 11,3 km/h (2 Bft) 93,75 %
07.07.2018 13:54 26,1 C 26,1 C 23,9 C 46 % 1021,0 hPa 0,0 l/m 2 min 0 min 895 W/m 9,0 km/h (2 Bft) 97,22 %
07.07.2018 13:56 26,1 C 26,1 C 23,9 C 47 % 1021,0 hPa 0,0 l/m 2 min 0 min 890 W/m 9,0 km/h (2 Bft) 93,62 %
07.07.2018 13:58 26,1 C 26,1 C 23,9 C 47 % 1021,0 hPa 0,0 l/m 2 min 0 min 901 W/m 18,0 km/h (3 Bft) 97,92 %
07.07.2018 14:00 26,1 C 26,1 C 23,9 C 47 % 1021,1 hPa 0,0 l/m 2 min 0 min 876 W/m 18,0 km/h (3 Bft) 95,74 %
07.07.2018 14:02 26,1 C 26,1 C 23,9 C 47 % 1021,1 hPa 0,0 l/m 2 min 0 min 870 W/m 13,5 km/h (3 Bft) 97,83 %
07.07.2018 14:04 26,1 C 26,1 C 23,9 C 47 % 1021,0 hPa 0,0 l/m 2 min 0 min 895 W/m 11,3 km/h (2 Bft) 95,24 %
07.07.2018 14:06 26,1 C 26,1 C 23,9 C 46 % 1021,1 hPa 0,0 l/m 2 min 0 min 882 W/m 13,5 km/h (3 Bft) 97,87 %
07.07.2018 14:08 26,0 C 25,6 C 23,9 C 47 % 1021,1 hPa 0,0 l/m 2 min 0 min 896 W/m 11,3 km/h (2 Bft) 95,65 %
07.07.2018 14:10 26,0 C 26,1 C 23,9 C 47 % 1021,2 hPa 0,0 l/m 2 min 0 min 879 W/m 6,8 km/h (2 Bft) 97,87 %
07.07.2018 14:12 26,0 C 26,1 C 23,9 C 47 % 1021,1 hPa 0,0 l/m 2 min 0 min 874 W/m 18,0 km/h (3 Bft) 95,74 %
07.07.2018 14:14 26,0 C 25,6 C 23,9 C 45 % 1021,1 hPa 0,0 l/m 2 min 0 min 900 W/m 15,8 km/h (3 Bft) 97,87 %
07.07.2018 14:16 25,9 C 25,6 C 23,9 C 47 % 1021,0 hPa 0,0 l/m 2 min 0 min 891 W/m 11,3 km/h (2 Bft) 97,87 %
07.07.2018 14:18 25,9 C 26,1 C 24,4 C 48 % 1021,0 hPa 0,0 l/m 2 min 0 min 899 W/m 18,0 km/h (3 Bft) 97,92 %
07.07.2018 14:20 25,9 C 26,1 C 23,9 C 47 % 1021,0 hPa 0,0 l/m 2 min 0 min 896 W/m 24,8 km/h (4 Bft) 97,83 %
07.07.2018 14:22 25,9 C 26,1 C 23,9 C 47 % 1021,1 hPa 0,0 l/m 2 min 0 min 866 W/m 18,0 km/h (3 Bft) 97,92 %
07.07.2018 14:24 25,9 C 25,6 C 23,9 C 47 % 1021,1 hPa 0,0 l/m 2 min 0 min 890 W/m 22,5 km/h (4 Bft) 97,92 %
07.07.2018 14:26 25,9 C 26,1 C 23,9 C 47 % 1021,0 hPa 0,0 l/m 2 min 0 min 903 W/m 13,5 km/h (3 Bft) 93,62 %
07.07.2018 14:28 25,9 C 26,1 C 23,9 C 48 % 1020,9 hPa 0,0 l/m 2 min 0 min 897 W/m 15,8 km/h (3 Bft) 97,87 %
07.07.2018 14:30 25,9 C 26,1 C 23,9 C 47 % 1020,9 hPa 0,0 l/m 2 min 0 min 899 W/m 24,8 km/h (4 Bft) 97,87 %
07.07.2018 14:32 25,9 C 26,1 C 23,9 C 47 % 1021,0 hPa 0,0 l/m 2 min 0 min 889 W/m 18,0 km/h (3 Bft) 95,65 %
07.07.2018 14:34 25,9 C 26,1 C 23,9 C 47 % 1021,0 hPa 0,0 l/m 2 min 0 min 913 W/m 20,3 km/h (4 Bft) 93,62 %
07.07.2018 14:36 25,9 C 26,1 C 24,4 C 47 % 1021,0 hPa 0,0 l/m 2 min 0 min 860 W/m 11,3 km/h (2 Bft) 97,87 %
07.07.2018 14:38 26,0 C 26,1 C 24,4 C 47 % 1021,0 hPa 0,0 l/m 2 min 0 min 858 W/m 13,5 km/h (3 Bft) 97,92 %
07.07.2018 14:40 26,0 C 26,7 C 24,4 C 48 % 1021,0 hPa 0,0 l/m 2 min 0 min 873 W/m 15,8 km/h (3 Bft) 100,00 %
07.07.2018 14:42 26,0 C 26,7 C 24,4 C 47 % 1021,0 hPa 0,0 l/m 2 min 0 min 906 W/m 11,3 km/h (2 Bft) 95,74 %
07.07.2018 14:44 26,1 C 26,7 C 24,4 C 48 % 1020,9 hPa 0,0 l/m 2 min 0 min 906 W/m 15,8 km/h (3 Bft) 95,83 %
07.07.2018 14:46 26,1 C 26,7 C 24,4 C 48 % 1021,0 hPa 0,0 l/m 2 min 0 min 886 W/m 20,3 km/h (4 Bft) 100,00 %
07.07.2018 14:48 26,2 C 26,7 C 24,4 C 46 % 1020,8 hPa 0,0 l/m 2 min 0 min 879 W/m 18,0 km/h (3 Bft) 95,65 %
07.07.2018 14:50 26,2 C 26,7 C 24,4 C 47 % 1020,9 hPa 0,0 l/m 2 min 0 min 877 W/m 20,3 km/h (4 Bft) 97,87 %
07.07.2018 14:52 26,2 C 26,7 C 24,4 C 47 % 1020,8 hPa 0,0 l/m 2 min 0 min 871 W/m 20,3 km/h (4 Bft) 93,62 %
07.07.2018 14:54 26,3 C 26,7 C 24,4 C 47 % 1020,9 hPa 0,0 l/m 2 min 0 min 873 W/m 13,5 km/h (3 Bft) 95,74 %
07.07.2018 14:56 26,3 C 26,7 C 24,4 C 47 % 1020,8 hPa 0,0 l/m 2 min 0 min 818 W/m 18,0 km/h (3 Bft) 95,74 %
07.07.2018 14:58 26,3 C 26,7 C 23,9 C 46 % 1020,8 hPa 0,0 l/m 2 min 0 min 901 W/m 22,5 km/h (4 Bft) 97,56 %
07.07.2018 15:00 26,3 C 26,1 C 23,9 C 46 % 1020,8 hPa 0,0 l/m 2 min 0 min 872 W/m 6,8 km/h (2 Bft) 98,00 %
07.07.2018 15:02 26,3 C 26,1 C 23,9 C 46 % 1020,8 hPa 0,0 l/m 2 min 0 min 864 W/m 22,5 km/h (4 Bft) 97,96 %
07.07.2018 15:04 26,3 C 26,1 C 23,9 C 46 % 1020,9 hPa 0,0 l/m 2 min 0 min 846 W/m 22,5 km/h (4 Bft) 97,87 %
07.07.2018 15:06 26,3 C 26,7 C 24,4 C 46 % 1020,8 hPa 0,0 l/m 2 min 0 min 884 W/m 13,5 km/h (3 Bft) 97,87 %
07.07.2018 15:08 26,3 C 26,7 C 24,4 C 47 % 1020,8 hPa 0,0 l/m 2 min 0 min 840 W/m 11,3 km/h (2 Bft) 97,87 %
07.07.2018 15:10 26,4 C 26,7 C 24,4 C 47 % 1020,8 hPa 0,0 l/m 2 min 0 min 849 W/m 11,3 km/h (2 Bft) 97,87 %
07.07.2018 15:12 26,4 C 26,7 C 24,4 C 49 % 1020,8 hPa 0,0 l/m 2 min 0 min 889 W/m 13,5 km/h (3 Bft) 97,83 %
07.07.2018 15:14 26,4 C 26,7 C 24,4 C 47 % 1020,8 hPa 0,0 l/m 2 min 0 min 841 W/m 9,0 km/h (2 Bft) 97,87 %
07.07.2018 15:16 26,5 C 26,7 C 24,4 C 47 % 1020,8 hPa 0,0 l/m 2 min 0 min 852 W/m 9,0 km/h (2 Bft) 97,62 %
07.07.2018 15:18 26,5 C 26,7 C 24,4 C 46 % 1020,8 hPa 0,0 l/m 2 min 0 min 842 W/m 22,5 km/h (4 Bft) 97,87 %
07.07.2018 15:20 26,5 C 26,7 C 24,4 C 48 % 1020,8 hPa 0,0 l/m 2 min 0 min 825 W/m 13,5 km/h (3 Bft) 100,00 %
07.07.2018 15:22 26,6 C 26,7 C 24,4 C 46 % 1020,8 hPa 0,0 l/m 2 min 0 min 810 W/m 15,8 km/h (3 Bft) 97,92 %
07.07.2018 15:24 26,6 C 27,2 C 24,4 C 47 % 1020,8 hPa 0,0 l/m 2 min 0 min 765 W/m 15,8 km/h (3 Bft) 97,92 %
07.07.2018 15:26 26,6 C 27,2 C 24,4 C 47 % 1020,8 hPa 0,0 l/m 2 min 0 min 808 W/m 15,8 km/h (3 Bft) 95,83 %
07.07.2018 15:28 26,6 C 27,2 C 24,4 C 47 % 1020,9 hPa 0,0 l/m 2 min 0 min 772 W/m 18,0 km/h (3 Bft) 97,92 %
07.07.2018 15:30 26,6 C 26,7 C 23,9 C 46 % 1020,9 hPa 0,0 l/m 2 min 0 min 737 W/m 9,0 km/h (2 Bft) 97,87 %
07.07.2018 15:32 26,6 C 26,7 C 23,9 C 47 % 1020,8 hPa 0,0 l/m 2 min 0 min 746 W/m 11,3 km/h (2 Bft) 97,87 %
07.07.2018 15:34 26,6 C 26,7 C 24,4 C 46 % 1020,9 hPa 0,0 l/m 2 min 0 min 803 W/m 20,3 km/h (4 Bft) 97,87 %
07.07.2018 15:36 26,6 C 27,2 C 23,9 C 46 % 1020,8 hPa 0,0 l/m 2 min 0 min 843 W/m 20,3 km/h (4 Bft) 97,56 %
07.07.2018 15:38 26,6 C 27,2 C 24,4 C 47 % 1020,8 hPa 0,0 l/m 2 min 0 min 804 W/m 13,5 km/h (3 Bft) 97,87 %
07.07.2018 15:40 26,6 C 27,8 C 24,4 C 46 % 1020,8 hPa 0,0 l/m 2 min 0 min 807 W/m 27,0 km/h (4 Bft) 95,74 %
07.07.2018 15:42 26,7 C 27,2 C 24,4 C 46 % 1020,8 hPa 0,0 l/m 2 min 0 min 800 W/m 20,3 km/h (4 Bft) 95,74 %
07.07.2018 15:44 26,7 C 28,3 C 24,4 C 47 % 1020,8 hPa 0,0 l/m 2 min 0 min 812 W/m 13,5 km/h (3 Bft) 95,83 %
07.07.2018 15:46 26,7 C 28,9 C 24,4 C 47 % 1020,8 hPa 0,0 l/m 2 min 0 min 850 W/m 24,8 km/h (4 Bft) 95,83 %
07.07.2018 15:48 26,8 C 29,4 C 24,4 C 46 % 1020,9 hPa 0,0 l/m 2 min 0 min 810 W/m 15,8 km/h (3 Bft) 97,92 %
07.07.2018 15:50 26,8 C 29,4 C 24,4 C 46 % 1020,8 hPa 0,0 l/m 2 min 0 min 733 W/m 15,8 km/h (3 Bft) 97,87 %
07.07.2018 15:52 26,8 C 30,0 C 24,4 C 47 % 1020,9 hPa 0,0 l/m 2 min 0 min 743 W/m 15,8 km/h (3 Bft) 97,87 %
07.07.2018 15:54 26,8 C 30,0 C 24,4 C 46 % 1020,8 hPa 0,0 l/m 2 min 0 min 748 W/m 11,3 km/h (2 Bft) 97,92 %
07.07.2018 15:56 26,8 C 30,6 C 24,4 C 47 % 1020,8 hPa 0,0 l/m 2 min 0 min 763 W/m 15,8 km/h (3 Bft) 93,75 %
07.07.2018 15:58 26,8 C 30,6 C 24,4 C 46 % 1020,8 hPa 0,0 l/m 2 min 0 min 788 W/m 15,8 km/h (3 Bft) 100,00 %
07.07.2018 16:00 26,8 C 31,1 C 24,4 C 47 % 1020,8 hPa 0,0 l/m 2 min 0 min 785 W/m 9,0 km/h (2 Bft) 97,87 %
07.07.2018 16:02 26,8 C 30,6 C 24,4 C 46 % 1020,8 hPa 0,0 l/m 2 min 0 min 779 W/m 18,0 km/h (3 Bft) 97,67 %
07.07.2018 16:04 26,8 C 30,6 C 24,4 C 46 % 1020,8 hPa 0,0 l/m 2 min 0 min 792 W/m 13,5 km/h (3 Bft) 97,87 %
07.07.2018 16:06 26,8 C 31,1 C 24,4 C 47 % 1020,9 hPa 0,0 l/m 2 min 0 min 767 W/m 15,8 km/h (3 Bft) 97,83 %
07.07.2018 16:08 26,9 C 31,1 C 24,4 C 47 % 1020,9 hPa 0,0 l/m 2 min 0 min 731 W/m 11,3 km/h (2 Bft) 97,87 %
07.07.2018 16:10 26,9 C 29,4 C 24,4 C 45 % 1020,8 hPa 0,0 l/m 2 min 0 min 758 W/m 18,0 km/h (3 Bft) 97,92 %
07.07.2018 16:12 26,9 C 30,0 C 24,4 C 45 % 1020,8 hPa 0,0 l/m 2 min 0 min 788 W/m 11,3 km/h (2 Bft) 97,92 %
07.07.2018 16:14 26,9 C 30,6 C 24,4 C 46 % 1020,8 hPa 0,0 l/m 2 min 0 min 795 W/m 13,5 km/h (3 Bft) 95,83 %
07.07.2018 16:16 26,9 C 31,1 C 24,4 C 47 % 1020,8 hPa 0,0 l/m 2 min 0 min 777 W/m 18,0 km/h (3 Bft) 97,87 %
07.07.2018 16:18 26,9 C 30,6 C 24,4 C 46 % 1020,8 hPa 0,0 l/m 2 min 0 min 777 W/m 20,3 km/h (4 Bft) 95,74 %
07.07.2018 16:20 26,9 C 30,6 C 24,4 C 46 % 1020,9 hPa 0,0 l/m 2 min 0 min 736 W/m 13,5 km/h (3 Bft) 95,74 %
07.07.2018 16:22 26,9 C 30,0 C 24,4 C 45 % 1020,9 hPa 0,0 l/m 2 min 0 min 731 W/m 9,0 km/h (2 Bft) 97,87 %
07.07.2018 16:24 26,9 C 30,6 C 25,0 C 47 % 1020,8 hPa 0,0 l/m 2 min 0 min 767 W/m 11,3 km/h (2 Bft) 97,92 %
07.07.2018 16:26 26,9 C 30,0 C 25,0 C 46 % 1020,8 hPa 0,0 l/m 2 min 0 min 781 W/m 9,0 km/h (2 Bft) 97,87 %
07.07.2018 16:28 26,9 C 29,4 C 25,0 C 46 % 1020,7 hPa 0,0 l/m 2 min 0 min 770 W/m 11,3 km/h (2 Bft) 95,83 %
07.07.2018 16:30 27,0 C 30,0 C 25,0 C 46 % 1020,7 hPa 0,0 l/m 2 min 0 min 755 W/m 13,5 km/h (3 Bft) 97,87 %
07.07.2018 16:32 27,0 C 30,0 C 25,0 C 47 % 1020,7 hPa 0,0 l/m 2 min 0 min 706 W/m 13,5 km/h (3 Bft) 100,00 %
07.07.2018 16:34 27,1 C 30,0 C 25,0 C 46 % 1020,8 hPa 0,0 l/m 2 min 0 min 736 W/m 20,3 km/h (4 Bft) 100,00 %
07.07.2018 16:36 27,1 C 30,0 C 24,4 C 45 % 1020,8 hPa 0,0 l/m 2 min 0 min 754 W/m 18,0 km/h (3 Bft) 97,87 %
07.07.2018 16:38 27,1 C 30,0 C 24,4 C 45 % 1020,8 hPa 0,0 l/m 2 min 0 min 755 W/m 11,3 km/h (2 Bft) 100,00 %
07.07.2018 16:40 27,1 C 30,0 C 25,0 C 46 % 1020,8 hPa 0,0 l/m 2 min 0 min 743 W/m 15,8 km/h (3 Bft) 100,00 %
07.07.2018 16:42 27,1 C 30,0 C 24,4 C 47 % 1020,7 hPa 0,0 l/m 2 min 0 min 737 W/m 13,5 km/h (3 Bft) 100,00 %
07.07.2018 16:44 27,2 C 30,0 C 25,0 C 46 % 1020,7 hPa 0,0 l/m 2 min 0 min 743 W/m 18,0 km/h (3 Bft) 100,00 %
07.07.2018 16:46 27,2 C 29,4 C 25,0 C 46 % 1020,7 hPa 0,0 l/m 2 min 0 min 753 W/m 13,5 km/h (3 Bft) 95,83 %
07.07.2018 16:48 27,2 C 29,4 C 25,0 C 46 % 1020,7 hPa 0,0 l/m 2 min 0 min 735 W/m 13,5 km/h (3 Bft) 100,00 %
07.07.2018 16:50 27,2 C 28,9 C 25,0 C 46 % 1020,8 hPa 0,0 l/m 2 min 0 min 730 W/m 18,0 km/h (3 Bft) 100,00 %
07.07.2018 16:52 27,2 C 28,9 C 25,0 C 46 % 1020,5 hPa 0,0 l/m 2 min 0 min 682 W/m 22,5 km/h (4 Bft) 100,00 %
07.07.2018 16:54 27,1 C 28,9 C 25,0 C 45 % 1020,6 hPa 0,0 l/m 2 min 0 min 679 W/m 18,0 km/h (3 Bft) 100,00 %
07.07.2018 16:56 27,1 C 28,9 C 25,0 C 46 % 1020,5 hPa 0,0 l/m 2 min 0 min 685 W/m 24,8 km/h (4 Bft) 97,83 %
07.07.2018 16:58 27,1 C 28,9 C 25,0 C 46 % 1020,5 hPa 0,0 l/m 2 min 0 min 718 W/m 13,5 km/h (3 Bft) 100,00 %
07.07.2018 17:00 27,1 C 28,9 C 25,0 C 46 % 1020,6 hPa 0,0 l/m 2 min 0 min 749 W/m 18,0 km/h (3 Bft) 100,00 %
07.07.2018 17:02 27,1 C 28,9 C 25,0 C 46 % 1020,5 hPa 0,0 l/m 2 min 0 min 733 W/m 18,0 km/h (3 Bft) 100,00 %
07.07.2018 17:04 27,1 C 28,9 C 25,0 C 46 % 1020,6 hPa 0,0 l/m 2 min 0 min 700 W/m 15,8 km/h (3 Bft) 100,00 %
07.07.2018 17:06 27,1 C 28,3 C 25,0 C 47 % 1020,6 hPa 0,0 l/m 2 min 0 min 633 W/m 15,8 km/h (3 Bft) 97,87 %
07.07.2018 17:08 27,1 C 28,3 C 24,4 C 46 % 1020,5 hPa 0,0 l/m 2 min 0 min 661 W/m 13,5 km/h (3 Bft) 97,87 %
07.07.2018 17:10 27,1 C 28,3 C 25,0 C 47 % 1020,4 hPa 0,0 l/m 2 min 0 min 695 W/m 15,8 km/h (3 Bft) 97,87 %
07.07.2018 17:12 27,0 C 27,8 C 25,0 C 46 % 1020,5 hPa 0,0 l/m 2 min 0 min 696 W/m 20,3 km/h (4 Bft) 95,74 %
07.07.2018 17:14 27,0 C 27,2 C 25,0 C 46 % 1020,5 hPa 0,0 l/m 2 min 0 min 364 W/m 13,5 km/h (3 Bft) 97,83 %
07.07.2018 17:16 27,0 C 27,8 C 25,0 C 47 % 1020,5 hPa 0,0 l/m 2 min 0 min 464 W/m 15,8 km/h (3 Bft) 95,74 %
07.07.2018 17:18 27,0 C 28,3 C 25,0 C 46 % 1020,5 hPa 0,0 l/m 2 min 0 min 716 W/m 11,3 km/h (2 Bft) 97,87 %
07.07.2018 17:20 27,0 C 28,3 C 25,0 C 46 % 1020,5 hPa 0,0 l/m 2 min 0 min 734 W/m 24,8 km/h (4 Bft) 97,87 %
07.07.2018 17:22 27,0 C 27,2 C 25,0 C 45 % 1020,4 hPa 0,0 l/m 2 min 0 min 587 W/m 20,3 km/h (4 Bft) 93,62 %
07.07.2018 17:24 26,9 C 26,7 C 24,4 C 47 % 1020,6 hPa 0,0 l/m 2 min 0 min 345 W/m 18,0 km/h (3 Bft) 97,87 %
07.07.2018 17:26 26,9 C 27,2 C 24,4 C 46 % 1020,6 hPa 0,0 l/m 2 min 0 min 513 W/m 13,5 km/h (3 Bft) 97,83 %
07.07.2018 17:28 26,9 C 27,8 C 25,0 C 47 % 1020,6 hPa 0,0 l/m 2 min 0 min 634 W/m 13,5 km/h (3 Bft) 97,87 %
07.07.2018 17:30 26,9 C 27,2 C 25,0 C 47 % 1020,5 hPa 0,0 l/m 2 min 0 min 546 W/m 13,5 km/h (3 Bft) 97,87 %
07.07.2018 17:32 26,9 C 27,8 C 25,0 C 47 % 1020,4 hPa 0,0 l/m 2 min 0 min 329 W/m 11,3 km/h (2 Bft) 97,87 %
07.07.2018 17:34 26,9 C 27,8 C 25,0 C 47 % 1020,4 hPa 0,0 l/m 2 min 0 min 654 W/m 11,3 km/h (2 Bft) 93,75 %
07.07.2018 17:36 26,9 C 27,8 C 25,0 C 47 % 1020,4 hPa 0,0 l/m 2 min 0 min 634 W/m 13,5 km/h (3 Bft) 97,87 %
07.07.2018 17:38 26,9 C 27,8 C 25,6 C 47 % 1020,4 hPa 0,0 l/m 2 min 0 min 570 W/m 9,0 km/h (2 Bft) 95,65 %
07.07.2018 17:40 26,9 C 27,2 C 25,0 C 47 % 1020,4 hPa 0,0 l/m 2 min 0 min 588 W/m 13,5 km/h (3 Bft) 91,49 %
07.07.2018 17:42 26,9 C 27,2 C 25,0 C 46 % 1020,4 hPa 0,0 l/m 2 min 0 min 603 W/m 11,3 km/h (2 Bft) 95,74 %
07.07.2018 17:44 26,9 C 27,2 C 25,0 C 46 % 1020,4 hPa 0,0 l/m 2 min 0 min 615 W/m 20,3 km/h (4 Bft) 97,87 %
07.07.2018 17:46 26,9 C 27,2 C 25,6 C 47 % 1020,4 hPa 0,0 l/m 2 min 0 min 641 W/m 11,3 km/h (2 Bft) 95,74 %
07.07.2018 17:48 26,9 C 27,2 C 25,6 C 46 % 1020,4 hPa 0,0 l/m 2 min 0 min 625 W/m 9,0 km/h (2 Bft) 95,74 %
07.07.2018 17:50 26,9 C 27,2 C 25,0 C 47 % 1020,4 hPa 0,0 l/m 2 min 0 min 601 W/m 15,8 km/h (3 Bft) 95,65 %
07.07.2018 17:52 26,9 C 26,7 C 25,0 C 47 % 1020,4 hPa 0,0 l/m 0 min 0 min 210 W/m 11,3 km/h (2 Bft) 97,87 %
07.07.2018 17:54 26,9 C 27,2 C 25,0 C 47 % 1020,4 hPa 0,0 l/m 2 min 0 min 362 W/m 15,8 km/h (3 Bft) 97,87 %
07.07.2018 17:56 26,9 C 26,7 C 25,0 C 46 % 1020,3 hPa 0,0 l/m 0 min 0 min 205 W/m 9,0 km/h (2 Bft) 95,74 %
07.07.2018 17:58 26,9 C 26,7 C 25,0 C 47 % 1020,3 hPa 0,0 l/m 0 min 0 min 169 W/m 4,5 km/h (1 Bft) 95,74 %
07.07.2018 18:00 26,9 C 26,7 C 25,0 C 47 % 1020,4 hPa 0,0 l/m 2 min 0 min 294 W/m 18,0 km/h (3 Bft) 95,74 %
07.07.2018 18:02 26,9 C 26,7 C 25,0 C 47 % 1020,4 hPa 0,0 l/m 2 min 0 min 573 W/m 20,3 km/h (4 Bft) 95,65 %
07.07.2018 18:04 26,9 C 27,2 C 25,0 C 46 % 1020,4 hPa 0,0 l/m 2 min 0 min 594 W/m 15,8 km/h (3 Bft) 95,74 %
07.07.2018 18:08 26,9 C 27,2 C 25,0 C 47 % 1020,3 hPa 0,0 l/m 4 min 0 min 592 W/m 18,0 km/h (3 Bft) 95,74 %
07.07.2018 18:10 26,9 C 27,2 C 25,6 C 48 % 1020,3 hPa 0,0 l/m 2 min 0 min 602 W/m 11,3 km/h (2 Bft) 95,83 %
07.07.2018 18:12 26,9 C 27,2 C 25,6 C 47 % 1020,3 hPa 0,0 l/m 2 min 0 min 595 W/m 20,3 km/h (4 Bft) 97,87 %
07.07.2018 18:14 26,9 C 27,2 C 25,6 C 47 % 1020,3 hPa 0,0 l/m 2 min 0 min 548 W/m 20,3 km/h (4 Bft) 97,92 %
07.07.2018 18:16 26,9 C 27,2 C 25,6 C 47 % 1020,3 hPa 0,0 l/m 2 min 0 min 500 W/m 13,5 km/h (3 Bft) 95,83 %
07.07.2018 18:18 26,9 C 27,2 C 25,6 C 47 % 1020,3 hPa 0,0 l/m 2 min 0 min 539 W/m 11,3 km/h (2 Bft) 97,87 %
07.07.2018 18:20 26,9 C 27,2 C 25,6 C 47 % 1020,3 hPa 0,0 l/m 2 min 0 min 517 W/m 11,3 km/h (2 Bft) 95,74 %
07.07.2018 18:22 26,9 C 27,2 C 25,6 C 47 % 1020,2 hPa 0,0 l/m 2 min 0 min 506 W/m 11,3 km/h (2 Bft) 100,00 %
07.07.2018 18:24 26,9 C 27,2 C 25,0 C 47 % 1020,2 hPa 0,0 l/m 2 min 0 min 534 W/m 9,0 km/h (2 Bft) 97,87 %
07.07.2018 18:26 26,9 C 27,2 C 25,6 C 48 % 1020,3 hPa 0,0 l/m 2 min 0 min 544 W/m 6,8 km/h (2 Bft) 95,74 %
07.07.2018 18:28 26,9 C 27,2 C 25,6 C 47 % 1020,3 hPa 0,0 l/m 2 min 0 min 553 W/m 18,0 km/h (3 Bft) 95,74 %
07.07.2018 18:30 26,9 C 27,2 C 25,6 C 47 % 1020,3 hPa 0,0 l/m 2 min 0 min 532 W/m 18,0 km/h (3 Bft) 97,83 %
07.07.2018 18:32 26,9 C 27,2 C 25,6 C 47 % 1020,3 hPa 0,0 l/m 2 min 0 min 521 W/m 15,8 km/h (3 Bft) 95,74 %
07.07.2018 18:34 26,9 C 27,2 C 25,6 C 46 % 1020,3 hPa 0,0 l/m 2 min 0 min 514 W/m 13,5 km/h (3 Bft) 95,74 %
07.07.2018 18:36 26,9 C 27,2 C 25,0 C 46 % 1020,2 hPa 0,0 l/m 2 min 0 min 518 W/m 18,0 km/h (3 Bft) 95,74 %
07.07.2018 18:38 26,9 C 27,2 C 25,0 C 46 % 1020,3 hPa 0,0 l/m 2 min 0 min 474 W/m 18,0 km/h (3 Bft) 95,12 %
07.07.2018 18:40 26,9 C 26,7 C 25,0 C 47 % 1020,3 hPa 0,0 l/m 2 min 0 min 470 W/m 13,5 km/h (3 Bft) 95,83 %
07.07.2018 18:42 26,9 C 26,7 C 25,0 C 47 % 1020,3 hPa 0,0 l/m 2 min 0 min 451 W/m 6,8 km/h (2 Bft) 93,75 %
07.07.2018 18:44 26,8 C 26,7 C 25,0 C 47 % 1020,3 hPa 0,0 l/m 2 min 0 min 464 W/m 11,3 km/h (2 Bft) 95,83 %
07.07.2018 18:46 26,8 C 26,7 C 25,0 C 47 % 1020,3 hPa 0,0 l/m 2 min 0 min 453 W/m 13,5 km/h (3 Bft) 95,83 %
07.07.2018 18:48 26,8 C 26,7 C 25,0 C 47 % 1020,3 hPa 0,0 l/m 2 min 0 min 440 W/m 13,5 km/h (3 Bft) 95,74 %
07.07.2018 18:50 26,8 C 26,1 C 24,4 C 46 % 1020,2 hPa 0,0 l/m 2 min 0 min 450 W/m 18,0 km/h (3 Bft) 93,62 %
07.07.2018 18:52 26,7 C 26,1 C 25,0 C 47 % 1020,3 hPa 0,0 l/m 2 min 0 min 428 W/m 20,3 km/h (4 Bft) 97,87 %
07.07.2018 18:54 26,7 C 26,1 C 24,4 C 47 % 1020,2 hPa 0,0 l/m 2 min 0 min 380 W/m 15,8 km/h (3 Bft) 95,74 %
07.07.2018 18:56 26,6 C 26,1 C 24,4 C 46 % 1020,2 hPa 0,0 l/m 2 min 0 min 380 W/m 18,0 km/h (3 Bft) 97,87 %
07.07.2018 18:58 26,6 C 26,1 C 24,4 C 47 % 1020,2 hPa 0,0 l/m 2 min 0 min 366 W/m 15,8 km/h (3 Bft) 95,74 %
07.07.2018 19:00 26,6 C 26,1 C 24,4 C 47 % 1020,2 hPa 0,0 l/m 2 min 0 min 335 W/m 13,5 km/h (3 Bft) 97,87 %
07.07.2018 19:02 26,4 C 26,1 C 24,4 C 46 % 1020,3 hPa 0,0 l/m 2 min 0 min 319 W/m 20,3 km/h (4 Bft) 100,00 %
07.07.2018 19:04 26,4 C 25,6 C 24,4 C 47 % 1020,3 hPa 0,0 l/m 2 min 0 min 323 W/m 15,8 km/h (3 Bft) 97,62 %
07.07.2018 19:06 26,3 C 25,6 C 24,4 C 47 % 1020,3 hPa 0,0 l/m 2 min 0 min 324 W/m 20,3 km/h (4 Bft) 97,92 %
07.07.2018 19:08 26,3 C 25,6 C 24,4 C 47 % 1020,1 hPa 0,0 l/m 2 min 0 min 338 W/m 13,5 km/h (3 Bft) 95,83 %
07.07.2018 19:10 26,2 C 25,6 C 24,4 C 47 % 1020,2 hPa 0,0 l/m 2 min 0 min 317 W/m 11,3 km/h (2 Bft) 97,87 %
07.07.2018 19:12 26,2 C 25,6 C 24,4 C 47 % 1020,1 hPa 0,0 l/m 2 min 0 min 312 W/m 18,0 km/h (3 Bft) 100,00 %
07.07.2018 19:14 26,1 C 25,6 C 23,9 C 47 % 1020,1 hPa 0,0 l/m 2 min 0 min 313 W/m 18,0 km/h (3 Bft) 97,87 %
07.07.2018 19:16 26,1 C 25,6 C 23,9 C 48 % 1020,2 hPa 0,0 l/m 2 min 0 min 321 W/m 20,3 km/h (4 Bft) 97,83 %
07.07.2018 19:18 26,0 C 25,6 C 23,9 C 48 % 1020,1 hPa 0,0 l/m 2 min 0 min 310 W/m 15,8 km/h (3 Bft) 97,87 %
07.07.2018 19:20 26,0 C 25,6 C 23,9 C 48 % 1020,2 hPa 0,0 l/m 2 min 0 min 294 W/m 11,3 km/h (2 Bft) 100,00 %
07.07.2018 19:22 25,9 C 25,6 C 23,9 C 48 % 1020,2 hPa 0,0 l/m 2 min 0 min 304 W/m 11,3 km/h (2 Bft) 97,87 %
07.07.2018 19:24 25,9 C 25,6 C 23,9 C 48 % 1020,2 hPa 0,0 l/m 2 min 0 min 291 W/m 11,3 km/h (2 Bft) 100,00 %
07.07.2018 19:26 25,8 C 25,0 C 23,9 C 48 % 1020,2 hPa 0,0 l/m 2 min 0 min 258 W/m 22,5 km/h (4 Bft) 97,87 %
07.07.2018 19:28 25,8 C 25,0 C 23,9 C 48 % 1020,2 hPa 0,0 l/m 2 min 0 min 285 W/m 15,8 km/h (3 Bft) 100,00 %
07.07.2018 19:30 25,7 C 25,0 C 23,3 C 48 % 1020,3 hPa 0,0 l/m 2 min 0 min 276 W/m 13,5 km/h (3 Bft) 100,00 %
07.07.2018 19:32 25,6 C 25,0 C 23,3 C 48 % 1020,2 hPa 0,0 l/m 2 min 0 min 260 W/m 20,3 km/h (4 Bft) 100,00 %
07.07.2018 19:34 25,6 C 25,0 C 23,3 C 49 % 1020,3 hPa 0,0 l/m 2 min 0 min 252 W/m 13,5 km/h (3 Bft) 100,00 %
07.07.2018 19:36 25,5 C 25,0 C 23,3 C 49 % 1020,3 hPa 0,0 l/m 2 min 0 min 249 W/m 9,0 km/h (2 Bft) 97,87 %
07.07.2018 19:38 25,5 C 25,0 C 23,3 C 49 % 1020,3 hPa 0,0 l/m 2 min 0 min 240 W/m 18,0 km/h (3 Bft) 100,00 %
07.07.2018 19:40 25,4 C 24,4 C 23,3 C 49 % 1020,3 hPa 0,0 l/m 2 min 0 min 229 W/m 18,0 km/h (3 Bft) 100,00 %
07.07.2018 19:42 25,3 C 24,4 C 23,3 C 48 % 1020,3 hPa 0,0 l/m 2 min 0 min 236 W/m 18,0 km/h (3 Bft) 100,00 %
07.07.2018 19:44 25,3 C 24,4 C 23,3 C 49 % 1020,3 hPa 0,0 l/m 2 min 0 min 243 W/m 11,3 km/h (2 Bft) 100,00 %
07.07.2018 19:46 25,2 C 24,4 C 23,3 C 49 % 1020,3 hPa 0,0 l/m 2 min 0 min 245 W/m 9,0 km/h (2 Bft) 100,00 %
07.07.2018 19:48 25,1 C 24,4 C 23,3 C 49 % 1020,3 hPa 0,0 l/m 2 min 0 min 250 W/m 9,0 km/h (2 Bft) 100,00 %
07.07.2018 19:50 25,1 C 24,4 C 23,3 C 49 % 1020,3 hPa 0,0 l/m 2 min 0 min 241 W/m 13,5 km/h (3 Bft) 100,00 %
07.07.2018 19:52 25,1 C 24,4 C 23,3 C 50 % 1020,3 hPa 0,0 l/m 2 min 0 min 223 W/m 11,3 km/h (2 Bft) 100,00 %
07.07.2018 19:54 25,1 C 24,4 C 23,3 C 50 % 1020,3 hPa 0,0 l/m 2 min 0 min 211 W/m 15,8 km/h (3 Bft) 100,00 %
07.07.2018 19:56 25,1 C 24,4 C 23,3 C 50 % 1020,4 hPa 0,0 l/m 2 min 0 min 158 W/m 11,3 km/h (2 Bft) 97,87 %
07.07.2018 19:58 25,0 C 24,4 C 23,3 C 50 % 1020,3 hPa 0,0 l/m 0 min 0 min 105 W/m 9,0 km/h (2 Bft) 100,00 %
07.07.2018 20:00 24,9 C 23,9 C 23,3 C 50 % 1020,4 hPa 0,0 l/m 0 min 0 min 93 W/m 6,8 km/h (2 Bft) 100,00 %
07.07.2018 20:02 24,9 C 23,9 C 22,8 C 50 % 1020,4 hPa 0,0 l/m 0 min 0 min 88 W/m 15,8 km/h (3 Bft) 100,00 %
07.07.2018 20:04 24,8 C 23,9 C 22,8 C 50 % 1020,4 hPa 0,0 l/m 0 min 0 min 84 W/m 24,8 km/h (4 Bft) 100,00 %
07.07.2018 20:06 24,8 C 23,9 C 22,8 C 50 % 1020,4 hPa 0,0 l/m 0 min 0 min 80 W/m 24,8 km/h (4 Bft) 100,00 %
07.07.2018 20:08 24,7 C 23,9 C 22,8 C 50 % 1020,5 hPa 0,0 l/m 0 min 0 min 76 W/m 18,0 km/h (3 Bft) 100,00 %
07.07.2018 20:10 24,7 C 23,3 C 22,8 C 50 % 1020,4 hPa 0,0 l/m 0 min 0 min 72 W/m 11,3 km/h (2 Bft) 100,00 %
07.07.2018 20:12 24,6 C 23,3 C 22,8 C 50 % 1020,5 hPa 0,0 l/m 0 min 0 min 69 W/m 11,3 km/h (2 Bft) 100,00 %
07.07.2018 20:14 24,5 C 23,3 C 22,8 C 50 % 1020,5 hPa 0,0 l/m 0 min 0 min 67 W/m 15,8 km/h (3 Bft) 97,87 %
07.07.2018 20:16 24,4 C 23,3 C 22,8 C 50 % 1020,5 hPa 0,0 l/m 0 min 0 min 64 W/m 11,3 km/h (2 Bft) 100,00 %
07.07.2018 20:18 24,4 C 23,3 C 22,8 C 50 % 1020,5 hPa 0,0 l/m 0 min 0 min 61 W/m 18,0 km/h (3 Bft) 100,00 %
07.07.2018 20:20 24,3 C 23,3 C 22,2 C 50 % 1020,5 hPa 0,0 l/m 0 min 0 min 58 W/m 15,8 km/h (3 Bft) 97,87 %
07.07.2018 20:22 24,2 C 23,3 C 22,2 C 50 % 1020,5 hPa 0,0 l/m 0 min 0 min 54 W/m 9,0 km/h (2 Bft) 100,00 %
07.07.2018 20:24 24,2 C 22,8 C 22,2 C 50 % 1020,5 hPa 0,0 l/m 0 min 0 min 52 W/m 13,5 km/h (3 Bft) 100,00 %
07.07.2018 20:26 24,1 C 22,8 C 22,2 C 50 % 1020,5 hPa 0,0 l/m 0 min 0 min 49 W/m 6,8 km/h (2 Bft) 97,87 %
07.07.2018 20:28 24,1 C 22,8 C 22,2 C 50 % 1020,5 hPa 0,0 l/m 0 min 0 min 47 W/m 11,3 km/h (2 Bft) 100,00 %
07.07.2018 20:30 24,0 C 22,8 C 22,2 C 50 % 1020,5 hPa 0,0 l/m 0 min 0 min 45 W/m 9,0 km/h (2 Bft) 100,00 %
07.07.2018 20:32 23,9 C 22,8 C 22,2 C 50 % 1020,5 hPa 0,0 l/m 0 min 0 min 43 W/m 11,3 km/h (2 Bft) 100,00 %
07.07.2018 20:34 23,9 C 22,8 C 21,7 C 50 % 1020,5 hPa 0,0 l/m 0 min 0 min 42 W/m 11,3 km/h (2 Bft) 100,00 %
07.07.2018 20:36 23,8 C 22,2 C 21,7 C 50 % 1020,5 hPa 0,0 l/m 0 min 0 min 40 W/m 15,8 km/h (3 Bft) 97,87 %
07.07.2018 20:38 23,7 C 22,2 C 21,7 C 50 % 1020,5 hPa 0,0 l/m 0 min 0 min 39 W/m 18,0 km/h (3 Bft) 97,87 %
07.07.2018 20:40 23,7 C 22,2 C 21,7 C 50 % 1020,5 hPa 0,0 l/m 0 min 0 min 39 W/m 11,3 km/h (2 Bft) 97,87 %
07.07.2018 20:42 23,6 C 22,2 C 21,7 C 50 % 1020,5 hPa 0,0 l/m 0 min 0 min 39 W/m 13,5 km/h (3 Bft) 97,87 %
07.07.2018 20:44 23,5 C 22,2 C 21,7 C 51 % 1020,5 hPa 0,0 l/m 0 min 0 min 37 W/m 6,8 km/h (2 Bft) 97,87 %
07.07.2018 20:46 23,4 C 22,2 C 21,7 C 50 % 1020,5 hPa 0,0 l/m 0 min 0 min 37 W/m 13,5 km/h (3 Bft) 95,74 %
07.07.2018 20:48 23,4 C 22,2 C 21,7 C 51 % 1020,5 hPa 0,0 l/m 0 min 0 min 37 W/m 13,5 km/h (3 Bft) 97,87 %
07.07.2018 20:50 23,3 C 22,2 C 21,7 C 50 % 1020,5 hPa 0,0 l/m 0 min 0 min 37 W/m 11,3 km/h (2 Bft) 97,87 %
07.07.2018 20:52 23,3 C 22,2 C 21,7 C 51 % 1020,6 hPa 0,0 l/m 0 min 0 min 35 W/m 6,8 km/h (2 Bft) 100,00 %
07.07.2018 20:54 23,2 C 21,7 C 21,7 C 51 % 1020,5 hPa 0,0 l/m 0 min 0 min 35 W/m 13,5 km/h (3 Bft) 97,87 %
07.07.2018 20:56 23,1 C 21,7 C 21,7 C 51 % 1020,5 hPa 0,0 l/m 0 min 0 min 33 W/m 13,5 km/h (3 Bft) 95,65 %
07.07.2018 20:58 23,1 C 21,7 C 21,1 C 51 % 1020,5 hPa 0,0 l/m 0 min 0 min 33 W/m 13,5 km/h (3 Bft) 95,74 %
07.07.2018 21:00 23,0 C 21,7 C 21,1 C 51 % 1020,6 hPa 0,0 l/m 0 min 0 min 31 W/m 13,5 km/h (3 Bft) 95,74 %
07.07.2018 21:02 22,9 C 21,7 C 21,1 C 52 % 1020,5 hPa 0,0 l/m 0 min 0 min 29 W/m 6,8 km/h (2 Bft) 97,87 %
07.07.2018 21:04 22,9 C 21,7 C 21,1 C 52 % 1020,5 hPa 0,0 l/m 0 min 0 min 28 W/m 9,0 km/h (2 Bft) 97,87 %
07.07.2018 21:06 22,8 C 21,7 C 21,1 C 52 % 1020,6 hPa 0,0 l/m 0 min 0 min 27 W/m 6,8 km/h (2 Bft) 95,74 %
07.07.2018 21:08 22,8 C 21,1 C 21,1 C 53 % 1020,6 hPa 0,0 l/m 0 min 0 min 26 W/m 4,5 km/h (1 Bft) 97,87 %
07.07.2018 21:10 22,7 C 21,1 C 21,1 C 52 % 1020,6 hPa 0,0 l/m 0 min 0 min 25 W/m 11,3 km/h (2 Bft) 95,74 %
07.07.2018 21:12 22,7 C 21,1 C 21,1 C 52 % 1020,5 hPa 0,0 l/m 0 min 0 min 25 W/m 11,3 km/h (2 Bft) 95,74 %
07.07.2018 21:14 22,6 C 21,1 C 21,1 C 52 % 1020,6 hPa 0,0 l/m 0 min 0 min 23 W/m 11,3 km/h (2 Bft) 93,48 %
07.07.2018 21:16 22,6 C 21,1 C 21,1 C 52 % 1020,7 hPa 0,0 l/m 0 min 0 min 23 W/m 6,8 km/h (2 Bft) 93,62 %
07.07.2018 21:18 22,5 C 21,1 C 21,1 C 52 % 1020,6 hPa 0,0 l/m 0 min 0 min 21 W/m 11,3 km/h (2 Bft) 93,62 %
07.07.2018 21:20 22,4 C 21,1 C 21,1 C 52 % 1020,6 hPa 0,0 l/m 0 min 0 min 21 W/m 6,8 km/h (2 Bft) 95,74 %
07.07.2018 21:22 22,4 C 21,1 C 20,6 C 52 % 1020,6 hPa 0,0 l/m 0 min 0 min 21 W/m 11,3 km/h (2 Bft) 93,62 %
07.07.2018 21:24 22,4 C 21,1 C 20,6 C 52 % 1020,6 hPa 0,0 l/m 0 min 0 min 20 W/m 11,3 km/h (2 Bft) 91,30 %
07.07.2018 21:26 22,3 C 21,1 C 20,6 C 53 % 1020,7 hPa 0,0 l/m 0 min 0 min 19 W/m 6,8 km/h (2 Bft) 93,62 %
07.07.2018 21:28 22,3 C 20,6 C 20,6 C 53 % 1020,7 hPa 0,0 l/m 0 min 0 min 18 W/m 4,5 km/h (1 Bft) 93,62 %
07.07.2018 21:30 22,3 C 20,6 C 20,6 C 53 % 1020,6 hPa 0,0 l/m 0 min 0 min 16 W/m 6,8 km/h (2 Bft) 95,74 %
07.07.2018 21:32 22,2 C 20,6 C 20,6 C 53 % 1020,6 hPa 0,0 l/m 0 min 0 min 16 W/m 6,8 km/h (2 Bft) 93,62 %
07.07.2018 21:34 22,2 C 20,6 C 20,6 C 53 % 1020,6 hPa 0,0 l/m 0 min 0 min 14 W/m 9,0 km/h (2 Bft) 95,74 %
07.07.2018 21:36 22,1 C 20,6 C 20,6 C 53 % 1020,6 hPa 0,0 l/m 0 min 0 min 13 W/m 4,5 km/h (1 Bft) 95,65 %
07.07.2018 21:38 22,1 C 20,6 C 20,6 C 53 % 1020,7 hPa 0,0 l/m 0 min 0 min 12 W/m 11,3 km/h (2 Bft) 95,74 %
07.07.2018 21:40 22,0 C 20,6 C 20,6 C 54 % 1020,7 hPa 0,0 l/m 0 min 0 min 12 W/m 4,5 km/h (1 Bft) 93,62 %
07.07.2018 21:42 21,9 C 20,6 C 20,6 C 54 % 1020,7 hPa 0,0 l/m 0 min 0 min 11 W/m 9,0 km/h (2 Bft) 89,36 %
07.07.2018 21:44 21,9 C 20,6 C 20,6 C 54 % 1020,7 hPa 0,0 l/m 0 min 0 min 9 W/m 9,0 km/h (2 Bft) 93,62 %
07.07.2018 21:46 21,8 C 20,0 C 20,6 C 54 % 1020,7 hPa 0,0 l/m 0 min 0 min 9 W/m 6,8 km/h (2 Bft) 95,74 %
07.07.2018 21:48 21,8 C 20,0 C 20,0 C 54 % 1020,7 hPa 0,0 l/m 0 min 0 min 9 W/m 4,5 km/h (1 Bft) 95,74 %
07.07.2018 21:50 21,8 C 20,0 C 20,0 C 55 % 1020,7 hPa 0,0 l/m 0 min 0 min 7 W/m 6,8 km/h (2 Bft) 93,62 %
07.07.2018 21:52 21,7 C 20,0 C 20,0 C 55 % 1020,7 hPa 0,0 l/m 0 min 0 min 7 W/m 2,3 km/h (1 Bft) 93,75 %
07.07.2018 21:54 21,7 C 20,0 C 20,0 C 55 % 1020,7 hPa 0,0 l/m 0 min 0 min 7 W/m 4,5 km/h (1 Bft) 93,62 %
07.07.2018 21:56 21,6 C 20,0 C 20,0 C 55 % 1020,8 hPa 0,0 l/m 0 min 0 min 5 W/m 4,5 km/h (1 Bft) 95,74 %
07.07.2018 21:58 21,5 C 19,4 C 20,0 C 55 % 1020,7 hPa 0,0 l/m 0 min 0 min 5 W/m 9,0 km/h (2 Bft) 93,62 %
07.07.2018 22:00 21,4 C 19,4 C 20,0 C 55 % 1020,8 hPa 0,0 l/m 0 min 0 min 5 W/m 6,8 km/h (2 Bft) 97,83 %
07.07.2018 22:02 21,4 C 19,4 C 19,4 C 56 % 1020,8 hPa 0,0 l/m 0 min 0 min 1 W/m 6,8 km/h (2 Bft) 95,74 %
07.07.2018 22:04 21,3 C 19,4 C 19,4 C 56 % 1020,7 hPa 0,0 l/m 0 min 0 min 0 W/m 6,8 km/h (2 Bft) 100,00 %
07.07.2018 22:06 21,2 C 19,4 C 19,4 C 56 % 1020,7 hPa 0,0 l/m 0 min 0 min 0 W/m 6,8 km/h (2 Bft) 100,00 %
07.07.2018 22:08 21,2 C 19,4 C 19,4 C 56 % 1020,8 hPa 0,0 l/m 0 min 0 min 0 W/m 6,8 km/h (2 Bft) 97,87 %
07.07.2018 22:10 21,1 C 19,4 C 19,4 C 56 % 1020,7 hPa 0,0 l/m 0 min 0 min 0 W/m 4,5 km/h (1 Bft) 100,00 %
07.07.2018 22:12 21,0 C 19,4 C 19,4 C 56 % 1020,8 hPa 0,0 l/m 0 min 0 min 0 W/m 6,8 km/h (2 Bft) 100,00 %
07.07.2018 22:14 20,9 C 18,9 C 19,4 C 56 % 1020,8 hPa 0,0 l/m 0 min 0 min 0 W/m 9,0 km/h (2 Bft) 97,87 %
07.07.2018 22:16 20,9 C 18,9 C 19,4 C 57 % 1020,8 hPa 0,0 l/m 0 min 0 min 0 W/m 6,8 km/h (2 Bft) 97,87 %
07.07.2018 22:18 20,9 C 18,9 C 19,4 C 57 % 1020,8 hPa 0,0 l/m 0 min 0 min 0 W/m 9,0 km/h (2 Bft) 100,00 %
07.07.2018 22:20 20,8 C 18,9 C 19,4 C 57 % 1020,9 hPa 0,0 l/m 0 min 0 min 0 W/m 6,8 km/h (2 Bft) 100,00 %
07.07.2018 22:22 20,8 C 18,9 C 19,4 C 57 % 1020,8 hPa 0,0 l/m 0 min 0 min 0 W/m 4,5 km/h (1 Bft) 100,00 %
07.07.2018 22:24 20,7 C 18,9 C 18,9 C 57 % 1020,8 hPa 0,0 l/m 0 min 0 min 0 W/m 6,8 km/h (2 Bft) 100,00 %
07.07.2018 22:26 20,7 C 18,9 C 18,9 C 58 % 1020,9 hPa 0,0 l/m 0 min 0 min 0 W/m 6,8 km/h (2 Bft) 97,87 %
07.07.2018 22:28 20,6 C 18,9 C 18,9 C 58 % 1020,9 hPa 0,0 l/m 0 min 0 min 0 W/m 2,3 km/h (1 Bft) 100,00 %
07.07.2018 22:30 20,5 C 18,9 C 18,9 C 58 % 1020,9 hPa 0,0 l/m 0 min 0 min 0 W/m 2,3 km/h (1 Bft) 100,00 %
07.07.2018 22:32 20,4 C 18,9 C 18,9 C 58 % 1020,9 hPa 0,0 l/m 0 min 0 min 0 W/m 6,8 km/h (2 Bft) 100,00 %
07.07.2018 22:34 20,4 C 18,9 C 18,9 C 58 % 1020,9 hPa 0,0 l/m 0 min 0 min 0 W/m 4,5 km/h (1 Bft) 100,00 %
07.07.2018 22:36 20,3 C 18,9 C 18,9 C 59 % 1020,9 hPa 0,0 l/m 0 min 0 min 0 W/m 4,5 km/h (1 Bft) 100,00 %
07.07.2018 22:38 20,3 C 18,9 C 18,9 C 58 % 1020,9 hPa 0,0 l/m 0 min 0 min 0 W/m 2,3 km/h (1 Bft) 100,00 %
07.07.2018 22:40 20,2 C 18,9 C 18,9 C 59 % 1020,9 hPa 0,0 l/m 0 min 0 min 0 W/m 4,5 km/h (1 Bft) 97,83 %
07.07.2018 22:42 20,2 C 18,3 C 18,9 C 59 % 1021,0 hPa 0,0 l/m 0 min 0 min 0 W/m 2,3 km/h (1 Bft) 100,00 %
07.07.2018 22:44 20,1 C 18,3 C 18,9 C 59 % 1021,1 hPa 0,0 l/m 0 min 0 min 0 W/m 2,3 km/h (1 Bft) 97,92 %
07.07.2018 22:46 20,1 C 18,3 C 18,9 C 59 % 1021,0 hPa 0,0 l/m 0 min 0 min 0 W/m 4,5 km/h (1 Bft) 97,87 %
07.07.2018 22:48 20,0 C 18,3 C 18,3 C 59 % 1021,0 hPa 0,0 l/m 0 min 0 min 0 W/m 2,3 km/h (1 Bft) 100,00 %
07.07.2018 22:50 19,9 C 18,3 C 18,3 C 60 % 1021,0 hPa 0,0 l/m 0 min 0 min 0 W/m 4,5 km/h (1 Bft) 100,00 %
07.07.2018 22:52 19,9 C 18,3 C 18,3 C 60 % 1021,1 hPa 0,0 l/m 0 min 0 min 0 W/m 6,8 km/h (2 Bft) 100,00 %
07.07.2018 22:54 19,8 C 18,3 C 18,3 C 60 % 1021,0 hPa 0,0 l/m 0 min 0 min 0 W/m 4,5 km/h (1 Bft) 100,00 %
07.07.2018 22:56 19,8 C 17,8 C 18,3 C 60 % 1020,9 hPa 0,0 l/m 0 min 0 min 0 W/m 4,5 km/h (1 Bft) 97,87 %
07.07.2018 22:58 19,7 C 18,3 C 18,3 C 60 % 1021,0 hPa 0,0 l/m 0 min 0 min 0 W/m 0,0 km/h (0 Bft) 97,87 %
07.07.2018 23:00 19,7 C 17,8 C 18,3 C 61 % 1020,9 hPa 0,0 l/m 0 min 0 min 0 W/m 4,5 km/h (1 Bft) 100,00 %
07.07.2018 23:02 19,7 C 17,8 C 18,3 C 61 % 1020,9 hPa 0,0 l/m 0 min 0 min 0 W/m 2,3 km/h (1 Bft) 100,00 %
07.07.2018 23:04 19,6 C 17,8 C 18,3 C 61 % 1020,9 hPa 0,0 l/m 0 min 0 min 0 W/m 4,5 km/h (1 Bft) 97,92 %
07.07.2018 23:06 19,6 C 17,8 C 18,3 C 62 % 1021,0 hPa 0,0 l/m 0 min 0 min 0 W/m 2,3 km/h (1 Bft) 100,00 %
07.07.2018 23:08 19,6 C 17,8 C 18,3 C 61 % 1021,1 hPa 0,0 l/m 0 min 0 min 0 W/m 0,0 km/h (0 Bft) 100,00 %
07.07.2018 23:10 19,5 C 17,8 C 18,3 C 61 % 1021,0 hPa 0,0 l/m 0 min 0 min 0 W/m 0,0 km/h (0 Bft) 100,00 %
07.07.2018 23:12 19,4 C 17,8 C 18,3 C 62 % 1021,0 hPa 0,0 l/m 0 min 0 min 0 W/m 2,3 km/h (1 Bft) 100,00 %
07.07.2018 23:14 19,3 C 17,8 C 17,8 C 62 % 1021,0 hPa 0,0 l/m 0 min 0 min 0 W/m 4,5 km/h (1 Bft) 100,00 %
07.07.2018 23:16 19,3 C 17,8 C 17,8 C 62 % 1021,0 hPa 0,0 l/m 0 min 0 min 0 W/m 2,3 km/h (1 Bft) 100,00 %
07.07.2018 23:18 19,2 C 17,8 C 17,8 C 62 % 1021,1 hPa 0,0 l/m 0 min 0 min 0 W/m 6,8 km/h (2 Bft) 97,87 %
07.07.2018 23:20 19,2 C 17,8 C 17,8 C 62 % 1021,0 hPa 0,0 l/m 0 min 0 min 0 W/m 4,5 km/h (1 Bft) 100,00 %
07.07.2018 23:22 19,2 C 17,8 C 17,8 C 62 % 1021,1 hPa 0,0 l/m 0 min 0 min 0 W/m 2,3 km/h (1 Bft) 100,00 %
07.07.2018 23:24 19,1 C 17,8 C 17,8 C 62 % 1021,0 hPa 0,0 l/m 0 min 0 min 0 W/m 2,3 km/h (1 Bft) 100,00 %
07.07.2018 23:26 19,1 C 17,8 C 17,8 C 62 % 1021,0 hPa 0,0 l/m 0 min 0 min 0 W/m 4,5 km/h (1 Bft) 100,00 %
07.07.2018 23:28 19,0 C 17,8 C 17,8 C 62 % 1021,0 hPa 0,0 l/m 0 min 0 min 0 W/m 6,8 km/h (2 Bft) 100,00 %
07.07.2018 23:30 18,9 C 17,2 C 17,8 C 62 % 1021,0 hPa 0,0 l/m 0 min 0 min 0 W/m 9,0 km/h (2 Bft) 100,00 %
07.07.2018 23:32 18,9 C 17,2 C 17,8 C 62 % 1021,0 hPa 0,0 l/m 0 min 0 min 0 W/m 2,3 km/h (1 Bft) 100,00 %
07.07.2018 23:34 18,8 C 17,2 C 17,8 C 62 % 1021,0 hPa 0,0 l/m 0 min 0 min 0 W/m 4,5 km/h (1 Bft) 100,00 %
07.07.2018 23:36 18,8 C 17,2 C 17,8 C 62 % 1021,0 hPa 0,0 l/m 0 min 0 min 0 W/m 4,5 km/h (1 Bft) 100,00 %
07.07.2018 23:38 18,8 C 17,2 C 17,8 C 62 % 1021,0 hPa 0,0 l/m 0 min 0 min 0 W/m 2,3 km/h (1 Bft) 100,00 %
07.07.2018 23:40 18,7 C 17,2 C 17,8 C 62 % 1021,0 hPa 0,0 l/m 0 min 0 min 0 W/m 4,5 km/h (1 Bft) 100,00 %
07.07.2018 23:42 18,7 C 17,2 C 17,8 C 62 % 1021,0 hPa 0,0 l/m 0 min 0 min 0 W/m 4,5 km/h (1 Bft) 97,83 %
07.07.2018 23:44 18,7 C 17,2 C 17,8 C 62 % 1021,0 hPa 0,0 l/m 0 min 0 min 0 W/m 6,8 km/h (2 Bft) 100,00 %
07.07.2018 23:46 18,6 C 17,2 C 17,8 C 62 % 1021,0 hPa 0,0 l/m 0 min 0 min 0 W/m 9,0 km/h (2 Bft) 95,83 %
07.07.2018 23:48 18,6 C 17,2 C 17,2 C 63 % 1021,0 hPa 0,0 l/m 0 min 0 min 0 W/m 2,3 km/h (1 Bft) 97,87 %
07.07.2018 23:50 18,6 C 17,2 C 17,2 C 63 % 1021,0 hPa 0,0 l/m 0 min 0 min 0 W/m 2,3 km/h (1 Bft) 97,87 %
07.07.2018 23:52 18,5 C 17,2 C 17,2 C 63 % 1021,1 hPa 0,0 l/m 0 min 0 min 0 W/m 4,5 km/h (1 Bft) 100,00 %
07.07.2018 23:54 18,4 C 17,2 C 17,2 C 63 % 1021,1 hPa 0,0 l/m 0 min 0 min 0 W/m 6,8 km/h (2 Bft) 100,00 %
07.07.2018 23:56 18,4 C 16,7 C 17,2 C 63 % 1021,0 hPa 0,0 l/m 0 min 0 min 0 W/m 4,5 km/h (1 Bft) 97,87 %
07.07.2018 23:58 18,4 C 16,7 C 17,2 C 64 % 1021,0 hPa 0,0 l/m 0 min 0 min 0 W/m 6,8 km/h (2 Bft) 97,87 %
_ Min-Zeit 06:58 03:34 06:16 12:42 00:00 - - - - 00:00 21:42
Minimum _ 16,0 C 15,6 C 14,4 C 43 % 1019,6 hPa - - - - 0,0 km/h (0 Bft) 89,36 %
_ Max-Zeit 16:44 11:34 17:38 06:38 09:02 00:00 12:08 00:00 14:34 15:40 00:36
Maximum _ 27,2 C 35,0 C 25,6 C 73 % 1021,5 hPa 0,0 l/m 4 min 0 min 913 W/m 27,0 km/h
W (4 Bft)
100,00 %
Durchschnitt _ 21,6 C 22,3 C 20,0 C 58 % 1020,6 hPa #0,0 l/m #11:36 h #0 min. 469 W/m 7,9 km/h (2 Bft) 97,58 %
© 2018 W. Hausmann